| time (UTC) | temp F | wind direction | speed knots | gust knots | rain 1hr in | rain 24hr in | rain mn in | humidity % | barometer mb |
| 20260903120122 | 68 | 224 | 6.1 | 9.6 | 0.00 | 0.31 | 0.31 | 88 | 1013.1 |
| 20260903115925 | 68 | 173 | 5.2 | 9.6 | 0.00 | 0.31 | 0.31 | 88 | 1013.1 |
| 20260903115829 | 68 | 178 | 3.5 | 8.7 | 0.00 | 0.31 | 0.31 | 89 | 1013.0 |
| 20260903115730 | 68 | 163 | 3.5 | 8.7 | 0.00 | 0.31 | 0.31 | 89 | 1013.0 |
| 20260903115653 | 68 | 168 | 4.3 | 8.7 | 0.00 | 0.31 | 0.31 | 89 | 1013.0 |
| 20260903115613 | 68 | 202 | 3.5 | 8.7 | 0.00 | 0.31 | 0.31 | 89 | 1013.1 |
| 20260903115517 | 68 | 208 | 3.5 | 8.7 | 0.00 | 0.31 | 0.31 | 89 | 1013.1 |
| 20260903115437 | 68 | 172 | 4.3 | 8.7 | 0.00 | 0.31 | 0.31 | 89 | 1013.1 |
| 20260903115310 | 68 | 191 | 4.3 | 8.7 | 0.00 | 0.31 | 0.31 | 89 | 1013.0 |
| 20260903115226 | 68 | 196 | 6.1 | 8.7 | 0.00 | 0.31 | 0.31 | 89 | 1013.0 |
| 20260903115057 | 68 | 146 | 5.2 | 9.6 | 0.00 | 0.31 | 0.31 | 89 | 1013.1 |
| 20260903115022 | 68 | 170 | 5.2 | 8.7 | 0.00 | 0.31 | 0.31 | 89 | 1013.1 |
| 20260903114828 | 67 | 173 | 4.3 | 8.7 | 0.00 | 0.31 | 0.31 | 89 | 1013.1 |
| 20260903114730 | 67 | 142 | 3.5 | 8.7 | 0.00 | 0.31 | 0.31 | 89 | 1013.1 |
| 20260903114633 | 67 | 217 | 4.3 | 8.7 | 0.00 | 0.31 | 0.31 | 89 | 1013.2 |
| 20260903114554 | 67 | 188 | 5.2 | 8.7 | 0.00 | 0.31 | 0.31 | 89 | 1013.2 |
| 20260903114402 | 67 | 218 | 5.2 | 8.7 | 0.00 | 0.31 | 0.31 | 89 | 1013.1 |
| 20260903114254 | 67 | 146 | 5.2 | 8.7 | 0.00 | 0.31 | 0.31 | 89 | 1013.2 |
| 20260903114044 | 67 | 182 | 4.3 | 10.4 | 0.00 | 0.31 | 0.31 | 90 | 1013.1 |
| 20260903113937 | 67 | 199 | 4.3 | 10.4 | 0.00 | 0.31 | 0.31 | 89 | 1013.1 |
| 20260903113808 | 67 | 187 | 4.3 | 10.4 | 0.00 | 0.31 | 0.31 | 90 | 1013.1 |
| 20260903113733 | 67 | 184 | 3.5 | 10.4 | 0.00 | 0.31 | 0.31 | 90 | 1013.1 |
| 20260903113536 | 67 | 182 | 5.2 | 10.4 | 0.00 | 0.31 | 0.31 | 90 | 1013.1 |
| 20260903113458 | 67 | 200 | 4.3 | 10.4 | 0.00 | 0.31 | 0.31 | 90 | 1013.2 |
| 20260903113341 | 67 | 202 | 5.2 | 9.6 | 0.00 | 0.31 | 0.31 | 89 | 1013.2 |
| 20260903113303 | 67 | 171 | 5.2 | 9.6 | 0.00 | 0.31 | 0.31 | 89 | 1013.3 |
| 20260903113218 | 67 | 180 | 5.2 | 9.6 | 0.00 | 0.31 | 0.31 | 89 | 1013.3 |
| 20260903113117 | 67 | 184 | 5.2 | 10.4 | 0.00 | 0.31 | 0.31 | 89 | 1013.2 |
| 20260903113039 | 67 | 172 | 4.3 | 10.4 | 0.00 | 0.31 | 0.31 | 89 | 1013.2 |
| 20260903112908 | 67 | 169 | 3.5 | 10.4 | 0.00 | 0.31 | 0.31 | 89 | 1013.3 |
| 20260903112822 | 67 | 165 | 4.3 | 10.4 | 0.00 | 0.31 | 0.31 | 89 | 1013.3 |
| 20260903112636 | 66 | 196 | 5.2 | 10.4 | 0.00 | 0.31 | 0.31 | 89 | 1013.3 |
| 20260903112532 | 66 | 182 | 3.5 | 10.4 | 0.00 | 0.31 | 0.31 | 90 | 1013.3 |
| 20260903112426 | 66 | 180 | 5.2 | 10.4 | 0.00 | 0.31 | 0.31 | 90 | 1013.3 |
| 20260903112347 | 66 | 194 | 5.2 | 10.4 | 0.00 | 0.31 | 0.31 | 90 | 1013.3 |
| 20260903112217 | 66 | 167 | 4.3 | 7.0 | 0.00 | 0.31 | 0.31 | 90 | 1013.3 |
| 20260903112132 | 66 | 126 | 4.3 | 7.0 | 0.00 | 0.31 | 0.31 | 90 | 1013.3 |
| 20260903112001 | 66 | 194 | 4.3 | 8.7 | 0.00 | 0.31 | 0.31 | 90 | 1013.3 |
| 20260903111922 | 66 | 188 | 3.5 | 8.7 | 0.00 | 0.31 | 0.31 | 90 | 1013.3 |
| 20260903111725 | 66 | 159 | 3.5 | 8.7 | 0.00 | 0.31 | 0.31 | 90 | 1013.3 |
| 20260903111646 | 66 | 184 | 3.5 | 8.7 | 0.00 | 0.31 | 0.31 | 90 | 1013.3 |
| 20260903111535 | 66 | 207 | 4.3 | 8.7 | 0.00 | 0.31 | 0.31 | 90 | 1013.3 |
| 20260903111455 | 66 | 179 | 5.2 | 8.7 | 0.00 | 0.31 | 0.31 | 90 | 1013.3 |
| 20260903111417 | 66 | 200 | 4.3 | 8.7 | 0.00 | 0.31 | 0.31 | 90 | 1013.3 |
| 20260903111322 | 66 | 154 | 3.5 | 8.7 | 0.00 | 0.31 | 0.31 | 90 | 1013.3 |
| 20260903111241 | 66 | 222 | 3.5 | 8.7 | 0.00 | 0.31 | 0.31 | 90 | 1013.2 |
| 20260903111050 | 66 | 175 | 4.3 | 8.7 | 0.00 | 0.31 | 0.31 | 90 | 1013.1 |
| 20260903111005 | 66 | 160 | 6.1 | 8.7 | 0.00 | 0.31 | 0.31 | 90 | 1013.1 |
| 20260903110813 | 66 | 162 | 5.2 | 9.6 | 0.00 | 0.31 | 0.31 | 90 | 1013.1 |
| 20260903110734 | 66 | 194 | 5.2 | 8.7 | 0.00 | 0.31 | 0.31 | 90 | 1013.1 |
| 20260903110537 | 66 | 186 | 4.3 | 9.6 | 0.00 | 0.31 | 0.31 | 90 | 1013.2 |
| 20260903110458 | 66 | 195 | 4.3 | 9.6 | 0.00 | 0.31 | 0.31 | 90 | 1013.2 |
| 20260903110404 | 66 | 155 | 3.5 | 9.6 | 0.00 | 0.31 | 0.31 | 90 | 1013.2 |
| 20260903110326 | 66 | 180 | 4.3 | 9.6 | 0.00 | 0.31 | 0.31 | 90 | 1013.2 |
| 20260903110128 | 66 | 185 | 6.1 | 9.6 | 0.00 | 0.31 | 0.31 | 90 | 1013.2 |
| 20260903110029 | 66 | 148 | 5.2 | 9.6 | 0.00 | 0.31 | 0.31 | 90 | 1013.2 |
| 20260903105933 | 66 | 213 | 5.2 | 9.6 | 0.00 | 0.31 | 0.31 | 90 | 1013.2 |
| 20260903105854 | 66 | 192 | 4.3 | 9.6 | 0.00 | 0.31 | 0.31 | 90 | 1013.2 |
| 20260903105815 | 66 | 178 | 4.3 | 9.6 | 0.00 | 0.31 | 0.31 | 90 | 1013.2 |
| 20260903105718 | 66 | 140 | 3.5 | 9.6 | 0.00 | 0.31 | 0.31 | 90 | 1013.2 |
| 20260903105618 | 66 | 172 | 4.3 | 9.6 | 0.00 | 0.31 | 0.31 | 90 | 1013.2 |
| 20260903105448 | 66 | 213 | 5.2 | 9.6 | 0.00 | 0.31 | 0.31 | 90 | 1013.1 |
| 20260903105327 | 66 | 172 | 6.1 | 9.6 | 0.00 | 0.31 | 0.31 | 90 | 1013.1 |
| 20260903105229 | 66 | 225 | 6.1 | 9.6 | 0.00 | 0.31 | 0.31 | 90 | 1013.1 |
| 20260903105150 | 66 | 152 | 6.1 | 9.6 | 0.00 | 0.31 | 0.31 | 90 | 1013.1 |
| 20260903104941 | 66 | 186 | 5.2 | 8.7 | 0.00 | 0.31 | 0.31 | 90 | 1013.1 |
| 20260903104833 | 66 | 200 | 6.1 | 8.7 | 0.00 | 0.31 | 0.31 | 90 | 1013.1 |
| 20260903104746 | 66 | 199 | 4.3 | 7.8 | 0.00 | 0.31 | 0.31 | 90 | 1013.2 |
| 20260903104627 | 66 | 209 | 3.5 | 8.7 | 0.00 | 0.31 | 0.31 | 90 | 1013.1 |
| 20260903104530 | 66 | 195 | 4.3 | 7.8 | 0.00 | 0.31 | 0.31 | 91 | 1013.1 |
| 20260903104437 | 66 | 181 | 5.2 | 7.8 | 0.00 | 0.31 | 0.31 | 90 | 1013.1 |
| 20260903104358 | 66 | 129 | 6.1 | 7.8 | 0.00 | 0.31 | 0.31 | 90 | 1013.0 |
| 20260903104248 | 66 | 164 | 4.3 | 8.7 | 0.00 | 0.31 | 0.31 | 91 | 1013.0 |
| 20260903104129 | 66 | 184 | 4.3 | 7.8 | 0.00 | 0.31 | 0.31 | 91 | 1013.0 |
| 20260903104033 | 66 | 96 | 5.2 | 7.8 | 0.00 | 0.31 | 0.31 | 91 | 1013.0 |
| 20260903103935 | 66 | 217 | 5.2 | 7.8 | 0.00 | 0.31 | 0.31 | 91 | 1013.0 |
| 20260903103804 | 66 | 188 | 5.2 | 7.8 | 0.00 | 0.31 | 0.31 | 91 | 1013.0 |
| 20260903103719 | 66 | 206 | 4.3 | 7.8 | 0.00 | 0.31 | 0.31 | 91 | 1013.1 |
| 20260903103548 | 65 | 183 | 3.5 | 7.0 | 0.00 | 0.31 | 0.31 | 91 | 1013.0 |
| 20260903103450 | 65 | 155 | 3.5 | 7.0 | 0.00 | 0.31 | 0.31 | 91 | 1013.0 |
| 20260903103333 | 66 | 232 | 4.3 | 7.0 | 0.00 | 0.31 | 0.31 | 91 | 1013.1 |
| 20260903103258 | 65 | 164 | 4.3 | 7.0 | 0.00 | 0.31 | 0.31 | 91 | 1013.0 |
| 20260903103202 | 65 | 194 | 4.3 | 7.0 | 0.00 | 0.31 | 0.31 | 91 | 1013.0 |
| 20260903103123 | 65 | 224 | 3.5 | 7.0 | 0.00 | 0.31 | 0.31 | 91 | 1013.0 |
| 20260903102936 | 65 | 207 | 3.5 | 7.0 | 0.00 | 0.31 | 0.31 | 91 | 1013.0 |
| 20260903102849 | 65 | 195 | 4.3 | 6.1 | 0.00 | 0.31 | 0.31 | 91 | 1013.0 |
| 20260903102657 | 65 | 167 | 2.6 | 7.0 | 0.00 | 0.31 | 0.31 | 91 | 1013.0 |
| 20260903102621 | 65 | 184 | 2.6 | 7.0 | 0.00 | 0.31 | 0.31 | 91 | 1013.0 |
| 20260903102534 | 65 | 180 | 2.6 | 7.8 | 0.00 | 0.31 | 0.31 | 91 | 1012.9 |
| 20260903102403 | 65 | 159 | 3.5 | 7.8 | 0.00 | 0.31 | 0.31 | 91 | 1012.9 |
| 20260903102324 | 65 | 181 | 3.5 | 7.8 | 0.00 | 0.31 | 0.31 | 91 | 1012.9 |
| 20260903102129 | 65 | 198 | 2.6 | 8.7 | 0.00 | 0.31 | 0.31 | 91 | 1012.9 |
| 20260903102029 | 65 | 168 | 3.5 | 8.7 | 0.00 | 0.31 | 0.31 | 91 | 1012.9 |
| 20260903101930 | 65 | 125 | 4.3 | 8.7 | 0.00 | 0.31 | 0.31 | 91 | 1012.9 |
| 20260903101845 | 65 | 220 | 4.3 | 8.7 | 0.00 | 0.31 | 0.31 | 91 | 1012.9 |
| 20260903101714 | 65 | 220 | 4.3 | 8.7 | 0.00 | 0.31 | 0.31 | 91 | 1012.9 |
| 20260903101635 | 65 | 194 | 4.3 | 8.7 | 0.00 | 0.31 | 0.31 | 91 | 1012.9 |
| 20260903101441 | 65 | 163 | 2.6 | 8.7 | 0.00 | 0.31 | 0.31 | 91 | 1012.9 |
| 20260903101401 | 65 | 188 | 2.6 | 8.7 | 0.00 | 0.31 | 0.31 | 91 | 1012.9 |
| 20260903101304 | 65 | 182 | 4.3 | 8.7 | 0.00 | 0.31 | 0.31 | 91 | 1012.8 |
| 20260903101226 | 65 | 181 | 4.3 | 8.7 | 0.00 | 0.31 | 0.31 | 91 | 1012.8 |
| 20260903101040 | 65 | 196 | 4.3 | 8.7 | 0.00 | 0.31 | 0.31 | 91 | 1012.9 |
| 20260903100953 | 65 | 193 | 4.3 | 8.7 | 0.00 | 0.31 | 0.31 | 91 | 1012.9 |
| 20260903100914 | 65 | 183 | 4.3 | 8.7 | 0.00 | 0.31 | 0.31 | 91 | 1012.9 |
| 20260903100835 | 65 | 161 | 3.5 | 8.7 | 0.00 | 0.31 | 0.31 | 91 | 1012.8 |
| 20260903100727 | 65 | 176 | 3.5 | 8.7 | 0.00 | 0.31 | 0.31 | 91 | 1012.8 |
| 20260903100537 | 65 | 132 | 3.5 | 7.8 | 0.00 | 0.31 | 0.31 | 91 | 1012.9 |
| 20260903100432 | 65 | 211 | 3.5 | 7.8 | 0.00 | 0.31 | 0.31 | 91 | 1012.9 |
| 20260903100353 | 65 | 202 | 4.3 | 7.8 | 0.00 | 0.31 | 0.31 | 91 | 1012.9 |
| 20260903100255 | 65 | 169 | 3.5 | 7.8 | 0.00 | 0.31 | 0.31 | 91 | 1012.9 |
| 20260903100216 | 65 | 232 | 3.5 | 7.0 | 0.00 | 0.31 | 0.31 | 91 | 1012.9 |
| 20260903100024 | 65 | 165 | 3.5 | 6.1 | 0.00 | 0.31 | 0.31 | 91 | 1012.9 |
| 20260903095924 | 65 | 167 | 3.5 | 6.1 | 0.00 | 0.31 | 0.31 | 91 | 1012.9 |
| 20260903095828 | 65 | 216 | 4.3 | 7.0 | 0.00 | 0.31 | 0.31 | 91 | 1012.8 |
| 20260903095749 | 65 | 184 | 3.5 | 7.0 | 0.00 | 0.31 | 0.31 | 91 | 1012.9 |
| 20260903095710 | 65 | 209 | 3.5 | 7.0 | 0.00 | 0.31 | 0.31 | 91 | 1012.9 |
| 20260903095552 | 65 | 222 | 3.5 | 7.0 | 0.00 | 0.31 | 0.31 | 91 | 1012.8 |
| 20260903095515 | 65 | 161 | 3.5 | 7.0 | 0.00 | 0.31 | 0.31 | 91 | 1012.9 |
| 20260903095436 | 65 | 184 | 2.6 | 7.0 | 0.00 | 0.31 | 0.31 | 91 | 1012.8 |
| 20260903095319 | 65 | 192 | 3.5 | 7.0 | 0.00 | 0.31 | 0.31 | 91 | 1012.9 |
| 20260903095219 | 65 | 167 | 3.5 | 7.0 | 0.00 | 0.31 | 0.31 | 91 | 1012.8 |
| 20260903095023 | 65 | 166 | 3.5 | 8.7 | 0.00 | 0.31 | 0.31 | 91 | 1012.8 |
| 20260903094927 | 65 | 199 | 2.6 | 6.1 | 0.00 | 0.31 | 0.31 | 91 | 1012.8 |
| 20260903094831 | 65 | 186 | 2.6 | 6.1 | 0.00 | 0.31 | 0.31 | 91 | 1012.8 |
| 20260903094733 | 65 | 200 | 3.5 | 6.1 | 0.00 | 0.31 | 0.31 | 91 | 1012.8 |
| 20260903094657 | 65 | 186 | 4.3 | 7.0 | 0.00 | 0.31 | 0.31 | 91 | 1012.8 |
| 20260903094558 | 65 | 158 | 2.6 | 7.0 | 0.00 | 0.31 | 0.31 | 91 | 1012.8 |
| 20260903094440 | 65 | 179 | 2.6 | 7.0 | 0.00 | 0.31 | 0.31 | 91 | 1012.7 |
| 20260903094342 | 65 | 147 | 3.5 | 7.0 | 0.00 | 0.31 | 0.31 | 91 | 1012.7 |
| 20260903094302 | 65 | 167 | 3.5 | 7.0 | 0.00 | 0.31 | 0.31 | 91 | 1012.8 |
| 20260903094203 | 65 | 191 | 3.5 | 7.0 | 0.00 | 0.31 | 0.31 | 91 | 1012.8 |
| 20260903094106 | 65 | 168 | 2.6 | 7.0 | 0.00 | 0.31 | 0.31 | 91 | 1012.8 |
| 20260903094032 | 65 | 135 | 2.6 | 7.0 | 0.00 | 0.31 | 0.31 | 91 | 1012.8 |
| 20260903093902 | 65 | 165 | 4.3 | 7.0 | 0.00 | 0.31 | 0.31 | 91 | 1012.8 |
| 20260903093818 | 65 | 159 | 3.5 | 7.0 | 0.00 | 0.31 | 0.31 | 91 | 1012.9 |
| 20260903093647 | 65 | 195 | 3.5 | 6.1 | 0.00 | 0.31 | 0.31 | 91 | 1012.8 |
| 20260903093549 | 65 | 158 | 3.5 | 7.0 | 0.00 | 0.31 | 0.31 | 91 | 1012.8 |
| 20260903093433 | 65 | 161 | 3.5 | 6.1 | 0.00 | 0.31 | 0.31 | 91 | 1012.8 |
| 20260903093356 | 65 | 190 | 3.5 | 6.1 | 0.00 | 0.31 | 0.31 | 91 | 1012.9 |
| 20260903093319 | 65 | 193 | 2.6 | 6.1 | 0.00 | 0.31 | 0.31 | 91 | 1012.9 |
| 20260903093222 | 65 | 207 | 1.7 | 6.1 | 0.00 | 0.31 | 0.31 | 91 | 1012.9 |
| 20260903093144 | 65 | 172 | 1.7 | 6.1 | 0.00 | 0.31 | 0.31 | 91 | 1012.8 |
| 20260903092901 | 65 | 211 | 2.6 | 6.1 | 0.00 | 0.31 | 0.31 | 91 | 1012.8 |
| 20260903092816 | 65 | 179 | 2.6 | 6.1 | 0.00 | 0.31 | 0.31 | 91 | 1012.8 |
| 20260903092630 | 65 | 175 | 1.7 | 8.7 | 0.00 | 0.31 | 0.31 | 91 | 1012.7 |
| 20260903092544 | 65 | 200 | 1.7 | 8.7 | 0.00 | 0.31 | 0.31 | 91 | 1012.7 |
| 20260903092352 | 65 | 186 | 1.7 | 8.7 | 0.00 | 0.31 | 0.31 | 91 | 1012.7 |
| 20260903092314 | 65 | 178 | 2.6 | 8.7 | 0.00 | 0.31 | 0.31 | 91 | 1012.7 |
| 20260903092136 | 65 | 160 | 2.6 | 8.7 | 0.00 | 0.31 | 0.31 | 91 | 1012.7 |
| 20260903092039 | 65 | 254 | 3.5 | 8.7 | 0.00 | 0.31 | 0.31 | 91 | 1012.7 |
| 20260903091941 | 65 | 216 | 4.3 | 8.7 | 0.00 | 0.31 | 0.31 | 91 | 1012.7 |
| 20260903091841 | 65 | 149 | 4.3 | 9.6 | 0.00 | 0.31 | 0.31 | 91 | 1012.7 |
| 20260903091710 | 65 | 231 | 5.2 | 8.7 | 0.00 | 0.31 | 0.31 | 91 | 1012.7 |
| 20260903091624 | 65 | 161 | 5.2 | 8.7 | 0.00 | 0.31 | 0.31 | 91 | 1012.7 |
| 20260903091454 | 65 | 205 | 5.2 | 8.7 | 0.00 | 0.31 | 0.31 | 91 | 1012.7 |
| 20260903091419 | 65 | 201 | 4.3 | 8.7 | 0.00 | 0.31 | 0.31 | 91 | 1012.6 |
| 20260903091225 | 65 | 238 | 4.3 | 7.8 | 0.00 | 0.31 | 0.31 | 91 | 1012.7 |
| 20260903091146 | 65 | 227 | 3.5 | 7.8 | 0.00 | 0.31 | 0.31 | 91 | 1012.7 |
| 20260903091031 | 65 | 203 | 4.3 | 7.8 | 0.00 | 0.31 | 0.31 | 91 | 1012.7 |
| 20260903091002 | 65 | 161 | 5.2 | 7.8 | 0.00 | 0.31 | 0.31 | 91 | 1012.7 |
| 20260903090833 | 65 | 188 | 5.2 | 7.8 | 0.00 | 0.31 | 0.31 | 91 | 1012.7 |
| 20260903090726 | 65 | 165 | 5.2 | 7.8 | 0.00 | 0.31 | 0.31 | 91 | 1012.7 |
| 20260903090535 | 65 | 202 | 4.3 | 7.8 | 0.00 | 0.31 | 0.31 | 91 | 1012.7 |
| 20260903090433 | 65 | 142 | 4.3 | 7.8 | 0.00 | 0.31 | 0.31 | 91 | 1012.7 |
| 20260903090359 | 65 | 171 | 4.3 | 7.8 | 0.00 | 0.31 | 0.31 | 91 | 1012.7 |
| 20260903090303 | 65 | 205 | 4.3 | 7.8 | 0.00 | 0.31 | 0.31 | 91 | 1012.7 |
| 20260903090225 | 65 | 235 | 2.6 | 8.7 | 0.00 | 0.31 | 0.31 | 91 | 1012.7 |
| 20260903090028 | 65 | 196 | 3.5 | 8.7 | 0.00 | 0.31 | 0.31 | 91 | 1012.8 |
| 20260903085928 | 65 | 162 | 3.5 | 8.7 | 0.00 | 0.31 | 0.31 | 91 | 1012.8 |
| 20260903085833 | 65 | 180 | 3.5 | 8.7 | 0.00 | 0.31 | 0.31 | 91 | 1012.8 |
| 20260903085733 | 65 | 164 | 4.3 | 8.7 | 0.00 | 0.31 | 0.31 | 91 | 1012.8 |
| 20260903085536 | 65 | 219 | 4.3 | 8.7 | 0.00 | 0.31 | 0.31 | 91 | 1012.9 |
| 20260903085424 | 64 | 209 | 5.2 | 8.7 | 0.00 | 0.31 | 0.31 | 91 | 1012.9 |
| 20260903085327 | 65 | 170 | 4.3 | 10.4 | 0.00 | 0.31 | 0.31 | 91 | 1012.9 |
| 20260903085249 | 64 | 167 | 4.3 | 10.4 | 0.00 | 0.31 | 0.31 | 91 | 1012.8 |
| 20260903085209 | 64 | 160 | 3.5 | 10.4 | 0.00 | 0.31 | 0.31 | 91 | 1012.9 |
| 20260903085113 | 65 | 156 | 3.5 | 10.4 | 0.00 | 0.31 | 0.31 | 91 | 1012.9 |
| 20260903085035 | 64 | 166 | 2.6 | 10.4 | 0.00 | 0.31 | 0.31 | 91 | 1012.9 |
| 20260903084904 | 64 | 153 | 4.3 | 10.4 | 0.00 | 0.31 | 0.31 | 91 | 1012.9 |
| 20260903084819 | 64 | 149 | 5.2 | 10.4 | 0.00 | 0.31 | 0.31 | 91 | 1012.9 |
| 20260903084630 | 64 | 162 | 6.1 | 10.4 | 0.00 | 0.31 | 0.31 | 91 | 1012.9 |
| 20260903084544 | 64 | 236 | 4.3 | 10.4 | 0.00 | 0.31 | 0.31 | 91 | 1012.9 |
| 20260903084414 | 64 | 255 | 2.6 | 8.7 | 0.00 | 0.31 | 0.31 | 91 | 1012.9 |
| 20260903084315 | 64 | 157 | 3.5 | 8.7 | 0.00 | 0.31 | 0.31 | 91 | 1012.9 |
| 20260903084123 | 64 | 178 | 2.6 | 8.7 | 0.00 | 0.31 | 0.31 | 91 | 1012.9 |
| 20260903084044 | 64 | 229 | 2.6 | 8.7 | 0.00 | 0.31 | 0.31 | 91 | 1012.9 |
| 20260903083928 | 64 | 173 | 2.6 | 8.7 | 0.00 | 0.31 | 0.31 | 91 | 1012.9 |
| 20260903083851 | 64 | 203 | 3.5 | 8.7 | 0.00 | 0.31 | 0.31 | 91 | 1012.9 |
| 20260903083813 | 64 | 202 | 3.5 | 8.7 | 0.00 | 0.31 | 0.31 | 91 | 1012.9 |
| 20260903083716 | 64 | 178 | 4.3 | 8.7 | 0.00 | 0.31 | 0.31 | 91 | 1012.9 |
| 20260903083616 | 64 | 178 | 4.3 | 8.7 | 0.00 | 0.31 | 0.31 | 91 | 1012.9 |
| 20260903083446 | 64 | 181 | 3.5 | 7.8 | 0.00 | 0.31 | 0.31 | 91 | 1012.9 |
| 20260903083341 | 64 | 154 | 3.5 | 7.0 | 0.00 | 0.31 | 0.31 | 91 | 1012.9 |
| 20260903083228 | 64 | 160 | 3.5 | 7.0 | 0.00 | 0.31 | 0.31 | 91 | 1012.9 |
| 20260903083149 | 64 | 155 | 4.3 | 8.7 | 0.00 | 0.31 | 0.31 | 91 | 1012.9 |
| 20260903082958 | 64 | 171 | 3.5 | 8.7 | 0.00 | 0.31 | 0.31 | 91 | 1013.0 |
| 20260903082915 | 64 | 188 | 2.6 | 8.7 | 0.00 | 0.31 | 0.31 | 91 | 1013.0 |
| 20260903082633 | 64 | 194 | 3.5 | 8.7 | 0.00 | 0.31 | 0.31 | 92 | 1013.0 |
| 20260903082548 | 64 | 192 | 4.3 | 8.7 | 0.00 | 0.31 | 0.31 | 92 | 1013.0 |
| 20260903082420 | 64 | 183 | 3.5 | 8.7 | 0.00 | 0.31 | 0.31 | 92 | 1013.0 |
| 20260903082320 | 64 | 169 | 2.6 | 5.2 | 0.00 | 0.31 | 0.31 | 92 | 1013.0 |
| 20260903082211 | 64 | 185 | 2.6 | 6.1 | 0.00 | 0.31 | 0.31 | 92 | 1013.0 |
| 20260903082133 | 64 | 195 | 2.6 | 7.8 | 0.00 | 0.31 | 0.31 | 92 | 1013.0 |
| 20260903081935 | 64 | 188 | 1.7 | 7.8 | 0.00 | 0.31 | 0.31 | 92 | 1013.0 |
| 20260903081842 | 64 | 145 | 2.6 | 7.8 | 0.00 | 0.31 | 0.31 | 92 | 1013.0 |
| 20260903081725 | 64 | 161 | 2.6 | 8.7 | 0.00 | 0.31 | 0.31 | 92 | 1013.0 |
| 20260903081646 | 64 | 186 | 1.7 | 8.7 | 0.01 | 0.31 | 0.31 | 92 | 1013.1 |
| 20260903081541 | 64 | 149 | 1.7 | 8.7 | 0.01 | 0.31 | 0.31 | 92 | 1013.1 |
| 20260903081502 | 64 | 171 | 3.5 | 8.7 | 0.01 | 0.31 | 0.31 | 92 | 1013.2 |
| 20260903081317 | 64 | 173 | 3.5 | 8.7 | 0.01 | 0.31 | 0.31 | 92 | 1013.2 |
| 20260903081244 | 64 | 173 | 2.6 | 8.7 | 0.01 | 0.31 | 0.31 | 92 | 1013.2 |
| 20260903081154 | 64 | 178 | 2.6 | 8.7 | 0.01 | 0.31 | 0.31 | 92 | 1013.2 |
| 20260903081130 | 64 | 175 | 2.6 | 8.7 | 0.01 | 0.31 | 0.31 | 92 | 1013.2 |
| 20260903080936 | 64 | 198 | 3.5 | 10.4 | 0.01 | 0.31 | 0.31 | 92 | 1013.2 |
| 20260903080835 | 64 | 69 | 2.6 | 9.6 | 0.01 | 0.31 | 0.31 | 92 | 1013.1 |
| 20260903080720 | 64 | 158 | 4.3 | 9.6 | 0.01 | 0.31 | 0.31 | 92 | 1013.1 |
| 20260903080651 | 64 | 223 | 3.5 | 9.6 | 0.01 | 0.31 | 0.31 | 92 | 1013.1 |
| 20260903080534 | 64 | 200 | 1.7 | 6.1 | 0.01 | 0.31 | 0.31 | 92 | 1013.0 |
| 20260903080455 | 64 | 179 | 2.6 | 6.1 | 0.01 | 0.31 | 0.31 | 92 | 1013.0 |
| 20260903080325 | 64 | 202 | 4.3 | 6.1 | 0.01 | 0.31 | 0.31 | 92 | 1013.0 |
| 20260903080218 | 64 | 178 | 4.3 | 6.1 | 0.02 | 0.31 | 0.31 | 92 | 1013.0 |
| 20260903080047 | 64 | 164 | 3.5 | 6.1 | 0.02 | 0.31 | 0.31 | 92 | 1013.0 |
| 20260903080011 | 64 | 171 | 3.5 | 6.1 | 0.02 | 0.31 | 0.31 | 92 | 1013.1 |
| 20260903075853 | 64 | 200 | 3.5 | 6.1 | 0.02 | 0.31 | 0.31 | 92 | 1013.1 |
| 20260903075816 | 64 | 179 | 3.5 | 6.1 | 0.02 | 0.31 | 0.31 | 92 | 1013.1 |
| 20260903075645 | 64 | 166 | 3.5 | 6.1 | 0.03 | 0.31 | 0.31 | 92 | 1013.2 |
| 20260903075540 | 64 | 209 | 3.5 | 6.1 | 0.03 | 0.31 | 0.31 | 92 | 1013.2 |
| 20260903075436 | 63 | 166 | 3.5 | 6.1 | 0.03 | 0.31 | 0.31 | 92 | 1013.2 |
| 20260903075358 | 64 | 215 | 3.5 | 6.1 | 0.04 | 0.31 | 0.31 | 92 | 1013.1 |
| 20260903075227 | 63 | 178 | 3.5 | 7.0 | 0.04 | 0.31 | 0.31 | 92 | 1013.0 |
| 20260903075130 | 63 | 173 | 2.6 | 7.0 | 0.04 | 0.31 | 0.31 | 92 | 1013.0 |
| 20260903075000 | 63 | 210 | 3.5 | 7.0 | 0.05 | 0.31 | 0.31 | 92 | 1013.1 |
| 20260903074922 | 63 | 173 | 3.5 | 7.0 | 0.05 | 0.31 | 0.31 | 92 | 1013.1 |
| 20260903074729 | 63 | 176 | 2.6 | 6.1 | 0.06 | 0.31 | 0.31 | 92 | 1013.2 |
| 20260903074630 | 63 | 161 | 2.6 | 6.1 | 0.07 | 0.31 | 0.31 | 92 | 1013.3 |
| 20260903074534 | 63 | 167 | 3.5 | 7.0 | 0.07 | 0.31 | 0.31 | 92 | 1013.3 |
| 20260903074455 | 63 | 172 | 2.6 | 5.2 | 0.08 | 0.31 | 0.31 | 92 | 1013.3 |
| 20260903074417 | 63 | 198 | 2.6 | 5.2 | 0.08 | 0.31 | 0.31 | 92 | 1013.3 |
| 20260903074301 | 63 | 162 | 3.5 | 5.2 | 0.09 | 0.31 | 0.31 | 92 | 1013.3 |
| 20260903074223 | 63 | 202 | 3.5 | 6.1 | 0.09 | 0.31 | 0.31 | 92 | 1013.3 |
| 20260903074054 | 63 | 167 | 2.6 | 6.1 | 0.10 | 0.31 | 0.31 | 92 | 1013.3 |
| 20260903074010 | 63 | 162 | 2.6 | 6.1 | 0.10 | 0.31 | 0.31 | 92 | 1013.3 |
| 20260903073840 | 63 | 181 | 2.6 | 6.1 | 0.11 | 0.31 | 0.31 | 92 | 1013.2 |
| 20260903073740 | 63 | 171 | 2.6 | 6.1 | 0.11 | 0.31 | 0.31 | 92 | 1013.2 |
| 20260903073614 | 63 | 128 | 2.6 | 7.0 | 0.11 | 0.31 | 0.31 | 92 | 1013.2 |
| 20260903073528 | 63 | 160 | 1.7 | 7.0 | 0.11 | 0.31 | 0.31 | 92 | 1013.2 |
| 20260903073358 | 63 | 173 | 1.7 | 7.0 | 0.11 | 0.31 | 0.31 | 92 | 1013.3 |
| 20260903073321 | 63 | 171 | 1.7 | 7.0 | 0.11 | 0.31 | 0.31 | 92 | 1013.3 |
| 20260903073236 | 63 | 193 | 1.7 | 7.0 | 0.12 | 0.31 | 0.31 | 92 | 1013.4 |
| 20260903073027 | 63 | 200 | 2.6 | 7.0 | 0.12 | 0.31 | 0.31 | 92 | 1013.4 |
| 20260903072941 | 63 | 164 | 4.3 | 7.0 | 0.12 | 0.31 | 0.31 | 92 | 1013.4 |
| 20260903072729 | 63 | 128 | 3.5 | 7.0 | 0.13 | 0.31 | 0.31 | 92 | 1013.4 |
| 20260903072643 | 63 | 172 | 2.6 | 4.3 | 0.13 | 0.31 | 0.31 | 92 | 1013.4 |
| 20260903072513 | 63 | 142 | 2.6 | 4.3 | 0.14 | 0.31 | 0.31 | 92 | 1013.3 |
| 20260903072436 | 63 | 129 | 2.6 | 4.3 | 0.14 | 0.31 | 0.31 | 92 | 1013.3 |
| 20260903072306 | 63 | 142 | 1.7 | 4.3 | 0.15 | 0.31 | 0.31 | 92 | 1013.4 |
| 20260903072225 | 63 | 220 | 1.7 | 4.3 | 0.15 | 0.31 | 0.31 | 92 | 1013.4 |
| 20260903071945 | 63 | 133 | 0.9 | 3.5 | 0.16 | 0.31 | 0.31 | 93 | 1013.4 |
| 20260903071839 | 63 | 159 | 0.9 | 3.5 | 0.16 | 0.31 | 0.31 | 93 | 1013.4 |
| 20260903071724 | 63 | 159 | 1.7 | 3.5 | 0.15 | 0.30 | 0.30 | 93 | 1013.4 |
| 20260903071645 | 63 | 178 | 1.7 | 4.3 | 0.15 | 0.30 | 0.30 | 93 | 1013.4 |
| 20260903071605 | 63 | 138 | 1.7 | 4.3 | 0.15 | 0.30 | 0.30 | 93 | 1013.4 |
| 20260903071447 | 63 | 157 | 0.9 | 4.3 | 0.16 | 0.30 | 0.30 | 93 | 1013.4 |
| 20260903071408 | 63 | 142 | 0.9 | 2.6 | 0.16 | 0.30 | 0.30 | 93 | 1013.4 |
| 20260903071311 | 63 | 142 | 0.0 | 2.6 | 0.16 | 0.30 | 0.30 | 93 | 1013.4 |
| 20260903071218 | 63 | 142 | 0.9 | 2.6 | 0.16 | 0.30 | 0.30 | 93 | 1013.4 |
| 20260903071141 | 63 | 142 | 0.9 | 2.6 | 0.16 | 0.30 | 0.30 | 93 | 1013.4 |
| 20260903070946 | 63 | 158 | 0.0 | 1.7 | 0.16 | 0.30 | 0.30 | 93 | 1013.4 |
| 20260903070840 | 63 | 147 | 0.0 | 1.7 | 0.16 | 0.30 | 0.30 | 93 | 1013.5 |
| 20260903070734 | 63 | 147 | 0.0 | 1.7 | 0.16 | 0.30 | 0.30 | 93 | 1013.5 |
| 20260903070636 | 63 | 147 | 0.0 | 1.7 | 0.17 | 0.30 | 0.30 | 93 | 1013.6 |
| 20260903070541 | 63 | 147 | 0.0 | 1.7 | 0.17 | 0.30 | 0.30 | 93 | 1013.6 |
| 20260903070502 | 63 | 147 | 0.0 | 1.7 | 0.17 | 0.30 | 0.30 | 92 | 1013.7 |
| 20260903070326 | 63 | 165 | 0.0 | 0.9 | 0.17 | 0.30 | 0.30 | 92 | 1013.7 |
| 20260903070231 | 63 | 165 | 0.0 | 0.9 | 0.16 | 0.29 | 0.29 | 92 | 1013.6 |
| 20260903070154 | 63 | 165 | 0.0 | 0.9 | 0.16 | 0.29 | 0.29 | 92 | 1013.6 |
| 20260903070055 | 63 | 165 | 0.0 | 0.9 | 0.16 | 0.29 | 0.29 | 92 | 1013.6 |
| 20260903070017 | 63 | 165 | 0.0 | 0.9 | 0.16 | 0.29 | 0.29 | 92 | 1013.6 |
| 20260903065841 | 63 | 165 | 0.0 | 0.9 | 0.16 | 0.29 | 0.29 | 92 | 1013.6 |
| 20260903065802 | 63 | 165 | 0.0 | 0.9 | 0.15 | 0.28 | 0.28 | 92 | 1013.6 |
| 20260903065723 | 63 | 165 | 0.0 | 0.9 | 0.15 | 0.28 | 0.28 | 92 | 1013.6 |
| 20260903065606 | 63 | 165 | 0.0 | 0.9 | 0.15 | 0.28 | 0.28 | 92 | 1013.6 |
| 20260903065528 | 63 | 165 | 0.0 | 1.7 | 0.15 | 0.28 | 0.28 | 92 | 1013.6 |
| 20260903065329 | 63 | 165 | 0.0 | 1.7 | 0.14 | 0.27 | 0.27 | 92 | 1013.6 |
| 20260903065234 | 63 | 165 | 0.0 | 2.6 | 0.14 | 0.27 | 0.27 | 92 | 1013.6 |
| 20260903065137 | 63 | 165 | 0.0 | 4.3 | 0.13 | 0.26 | 0.26 | 92 | 1013.7 |
| 20260903065101 | 63 | 165 | 0.0 | 4.3 | 0.13 | 0.26 | 0.26 | 92 | 1013.6 |
| 20260903064922 | 63 | 166 | 0.0 | 4.3 | 0.13 | 0.26 | 0.26 | 92 | 1013.7 |
| 20260903064815 | 63 | 166 | 0.0 | 4.3 | 0.12 | 0.25 | 0.25 | 92 | 1013.7 |
| 20260903064707 | 63 | 166 | 0.9 | 4.3 | 0.11 | 0.24 | 0.24 | 92 | 1013.7 |
| 20260903064608 | 63 | 165 | 0.9 | 4.3 | 0.11 | 0.24 | 0.24 | 92 | 1013.7 |
| 20260903064415 | 63 | 172 | 0.9 | 4.3 | 0.10 | 0.23 | 0.23 | 92 | 1013.8 |
| 20260903064329 | 63 | 142 | 0.9 | 3.5 | 0.09 | 0.22 | 0.22 | 92 | 1013.8 |
| 20260903064158 | 63 | 226 | 0.0 | 2.6 | 0.08 | 0.21 | 0.21 | 92 | 1013.8 |
| 20260903064124 | 63 | 226 | 0.0 | 4.3 | 0.08 | 0.21 | 0.21 | 92 | 1013.8 |
| 20260903063927 | 64 | 143 | 0.0 | 4.3 | 0.08 | 0.21 | 0.21 | 92 | 1013.7 |
| 20260903063848 | 63 | 143 | 0.0 | 4.3 | 0.07 | 0.20 | 0.20 | 92 | 1013.6 |
| 20260903063742 | 64 | 143 | 0.0 | 4.3 | 0.07 | 0.20 | 0.20 | 92 | 1013.6 |
| 20260903063704 | 64 | 143 | 0.0 | 4.3 | 0.07 | 0.20 | 0.20 | 92 | 1013.7 |
| 20260903063534 | 64 | 143 | 0.9 | 4.3 | 0.08 | 0.20 | 0.20 | 92 | 1013.7 |
| 20260903063425 | 64 | 146 | 0.9 | 4.3 | 0.08 | 0.20 | 0.20 | 92 | 1013.7 |
| 20260903063236 | 64 | 156 | 0.0 | 4.3 | 0.07 | 0.19 | 0.19 | 92 | 1013.7 |
| 20260903063130 | 64 | 151 | 0.9 | 4.3 | 0.07 | 0.19 | 0.19 | 92 | 1013.7 |
| 20260903063054 | 64 | 155 | 0.9 | 4.3 | 0.07 | 0.19 | 0.19 | 92 | 1013.8 |
| 20260903062938 | 64 | 171 | 0.9 | 5.2 | 0.07 | 0.19 | 0.19 | 92 | 1013.7 |
| 20260903062901 | 64 | 141 | 0.9 | 5.2 | 0.06 | 0.18 | 0.18 | 92 | 1013.7 |
| 20260903062742 | 64 | 178 | 1.7 | 5.2 | 0.06 | 0.18 | 0.18 | 92 | 1013.7 |
| 20260903062704 | 64 | 211 | 0.9 | 5.2 | 0.05 | 0.17 | 0.17 | 91 | 1013.8 |
| 20260903062512 | 64 | 206 | 1.7 | 5.2 | 0.06 | 0.17 | 0.17 | 91 | 1013.9 |
| 20260903062425 | 64 | 206 | 2.6 | 5.2 | 0.05 | 0.16 | 0.16 | 91 | 1013.9 |
| 20260903062235 | 64 | 194 | 1.7 | 5.2 | 0.05 | 0.16 | 0.16 | 91 | 1013.8 |
| 20260903062150 | 64 | 206 | 2.6 | 5.2 | 0.04 | 0.15 | 0.15 | 91 | 1013.8 |
| 20260903061909 | 64 | 148 | 0.9 | 3.5 | 0.04 | 0.15 | 0.15 | 91 | 1013.7 |
| 20260903061831 | 64 | 175 | 0.0 | 3.5 | 0.04 | 0.15 | 0.15 | 91 | 1013.7 |
| 20260903061639 | 64 | 175 | 0.9 | 3.5 | 0.04 | 0.15 | 0.15 | 90 | 1013.7 |
| 20260903061542 | 64 | 175 | 0.9 | 3.5 | 0.04 | 0.15 | 0.15 | 90 | 1013.7 |
| 20260903061445 | 64 | 163 | 0.9 | 3.5 | 0.03 | 0.14 | 0.14 | 90 | 1013.7 |
| 20260903061346 | 64 | 163 | 1.7 | 3.5 | 0.03 | 0.14 | 0.14 | 90 | 1013.8 |
| 20260903061215 | 64 | 146 | 0.9 | 2.6 | 0.03 | 0.14 | 0.14 | 90 | 1013.8 |
| 20260903061130 | 64 | 146 | 0.9 | 2.6 | 0.03 | 0.14 | 0.14 | 90 | 1013.8 |
| 20260903060940 | 64 | 178 | 0.9 | 3.5 | 0.03 | 0.14 | 0.14 | 90 | 1013.9 |
| 20260903060815 | 64 | 182 | 0.9 | 3.5 | 0.03 | 0.14 | 0.14 | 90 | 1013.9 |
| 20260903060733 | 64 | 196 | 1.7 | 3.5 | 0.03 | 0.14 | 0.14 | 90 | 1013.9 |
| 20260903060656 | 64 | 190 | 0.9 | 3.5 | 0.02 | 0.13 | 0.13 | 90 | 1013.8 |
| 20260903060618 | 64 | 164 | 0.9 | 3.5 | 0.02 | 0.13 | 0.13 | 90 | 1013.9 |
| 20260903060511 | 64 | 200 | 0.9 | 3.5 | 0.02 | 0.13 | 0.13 | 89 | 1013.8 |
| 20260903060433 | 64 | 150 | 0.9 | 3.5 | 0.02 | 0.13 | 0.13 | 89 | 1013.8 |
| 20260903060236 | 64 | 172 | 1.7 | 3.5 | 0.02 | 0.13 | 0.13 | 89 | 1013.9 |
| 20260903060139 | 64 | 155 | 1.7 | 7.0 | 0.02 | 0.13 | 0.13 | 89 | 1013.9 |
| 20260903060024 | 64 | 157 | 0.9 | 7.0 | 0.02 | 0.13 | 0.13 | 89 | 1013.9 |
| 20260903055946 | 64 | 155 | 0.9 | 9.6 | 0.02 | 0.13 | 0.13 | 89 | 1013.8 |
| 20260903055811 | 64 | 183 | 2.6 | 9.6 | 0.02 | 0.13 | 0.13 | 89 | 1013.9 |
| 20260903055736 | 64 | 168 | 2.6 | 9.6 | 0.02 | 0.13 | 0.13 | 89 | 1013.9 |
| 20260903055607 | 64 | 144 | 2.6 | 9.6 | 0.03 | 0.13 | 0.13 | 89 | 1014.0 |
| 20260903055529 | 64 | 156 | 2.6 | 9.6 | 0.03 | 0.13 | 0.13 | 88 | 1014.0 |
| 20260903055333 | 64 | 161 | 5.2 | 9.6 | 0.03 | 0.13 | 0.13 | 88 | 1014.0 |
| 20260903055256 | 64 | 172 | 5.2 | 9.6 | 0.03 | 0.13 | 0.13 | 89 | 1014.0 |
| 20260903055200 | 64 | 166 | 5.2 | 9.6 | 0.03 | 0.13 | 0.13 | 88 | 1014.0 |
| 20260903055121 | 64 | 184 | 4.3 | 9.6 | 0.03 | 0.13 | 0.13 | 88 | 1014.0 |
| 20260903054953 | 64 | 182 | 2.6 | 4.3 | 0.03 | 0.13 | 0.13 | 89 | 1014.1 |
| 20260903054846 | 64 | 217 | 1.7 | 4.3 | 0.03 | 0.13 | 0.13 | 89 | 1014.1 |
| 20260903054717 | 64 | 190 | 1.7 | 6.1 | 0.07 | 0.13 | 0.13 | 89 | 1014.0 |
| 20260903054639 | 64 | 190 | 1.7 | 6.1 | 0.07 | 0.13 | 0.13 | 89 | 1014.0 |
| 20260903054426 | 64 | 240 | 0.9 | 6.1 | 0.13 | 0.13 | 0.13 | 89 | 1014.0 |
| 20260903054348 | 64 | 166 | 0.9 | 6.1 | 0.13 | 0.13 | 0.13 | 89 | 1014.0 |
| 20260903054251 | 64 | 166 | 0.9 | 6.1 | 0.13 | 0.13 | 0.13 | 89 | 1014.1 |
| 20260903054212 | 64 | 163 | 0.9 | 6.1 | 0.13 | 0.13 | 0.13 | 89 | 1014.1 |
| 20260903054133 | 64 | 128 | 1.7 | 6.1 | 0.13 | 0.13 | 0.13 | 89 | 1014.1 |
| 20260903054016 | 65 | 128 | 2.6 | 6.1 | 0.13 | 0.13 | 0.13 | 89 | 1014.1 |
| 20260903053937 | 65 | 163 | 2.6 | 6.1 | 0.13 | 0.13 | 0.13 | 89 | 1014.2 |
| 20260903053747 | 65 | 159 | 1.7 | 5.2 | 0.13 | 0.13 | 0.13 | 90 | 1014.3 |
| 20260903053641 | 65 | 159 | 0.9 | 5.2 | 0.13 | 0.13 | 0.13 | 90 | 1014.3 |
| 20260903053526 | 65 | 159 | 1.7 | 5.2 | 0.12 | 0.12 | 0.12 | 89 | 1014.3 |
| 20260903053452 | 65 | 153 | 2.6 | 5.2 | 0.12 | 0.12 | 0.12 | 89 | 1014.4 |
| 20260903053415 | 65 | 128 | 0.9 | 2.6 | 0.12 | 0.12 | 0.12 | 89 | 1014.4 |
| 20260903053258 | 65 | 142 | 0.9 | 2.6 | 0.12 | 0.12 | 0.12 | 90 | 1014.4 |
| 20260903053221 | 65 | 134 | 0.9 | 2.6 | 0.12 | 0.12 | 0.12 | 90 | 1014.4 |
| 20260903053142 | 65 | 134 | 0.9 | 3.5 | 0.12 | 0.12 | 0.12 | 90 | 1014.4 |
| 20260903053012 | 65 | 132 | 0.0 | 3.5 | 0.12 | 0.12 | 0.12 | 90 | 1014.4 |
| 20260903052926 | 65 | 132 | 0.0 | 3.5 | 0.12 | 0.12 | 0.12 | 90 | 1014.4 |
| 20260903052757 | 65 | 132 | 0.0 | 3.5 | 0.12 | 0.12 | 0.12 | 90 | 1014.5 |
| 20260903052718 | 65 | 153 | 0.0 | 3.5 | 0.12 | 0.12 | 0.12 | 90 | 1014.5 |
| 20260903052542 | 65 | 194 | 0.0 | 3.5 | 0.11 | 0.11 | 0.11 | 90 | 1014.5 |
| 20260903052444 | 65 | 194 | 0.9 | 3.5 | 0.11 | 0.11 | 0.11 | 90 | 1014.5 |
| 20260903052331 | 65 | 194 | 0.9 | 3.5 | 0.11 | 0.11 | 0.11 | 90 | 1014.6 |
| 20260903052252 | 65 | 185 | 0.0 | 2.6 | 0.11 | 0.11 | 0.11 | 90 | 1014.6 |
| 20260903052034 | 65 | 185 | 0.9 | 2.6 | 0.11 | 0.11 | 0.11 | 90 | 1014.5 |
| 20260903051957 | 65 | 157 | 0.9 | 2.6 | 0.11 | 0.11 | 0.11 | 90 | 1014.5 |
| 20260903051823 | 65 | 175 | 0.9 | 2.6 | 0.11 | 0.11 | 0.11 | 90 | 1014.5 |
| 20260903051727 | 65 | 175 | 0.9 | 2.6 | 0.11 | 0.11 | 0.11 | 90 | 1014.5 |
| 20260903051647 | 65 | 154 | 0.0 | 2.6 | 0.11 | 0.11 | 0.11 | 90 | 1014.5 |
| 20260903051458 | 65 | 154 | 0.9 | 2.6 | 0.11 | 0.11 | 0.11 | 90 | 1014.5 |
| 20260903051412 | 65 | 159 | 0.0 | 2.6 | 0.11 | 0.11 | 0.11 | 90 | 1014.5 |
| 20260903051221 | 65 | 159 | 0.0 | 2.6 | 0.11 | 0.11 | 0.11 | 90 | 1014.5 |
| 20260903051126 | 65 | 159 | 0.0 | 2.6 | 0.11 | 0.11 | 0.11 | 90 | 1014.5 |
| 20260903050930 | 65 | 159 | 0.0 | 5.2 | 0.11 | 0.11 | 0.11 | 89 | 1014.6 |
| 20260903050831 | 65 | 159 | 0.0 | 5.2 | 0.11 | 0.11 | 0.11 | 89 | 1014.6 |
| 20260903050725 | 65 | 159 | 1.7 | 5.2 | 0.11 | 0.11 | 0.11 | 88 | 1014.6 |
| 20260903050625 | 65 | 159 | 1.7 | 5.2 | 0.11 | 0.11 | 0.11 | 88 | 1014.6 |
| 20260903050457 | 65 | 166 | 0.9 | 5.2 | 0.11 | 0.11 | 0.11 | 88 | 1014.6 |
| 20260903050330 | 65 | 174 | 1.7 | 5.2 | 0.11 | 0.11 | 0.11 | 88 | 1014.6 |
| 20260903050225 | 65 | 154 | 2.6 | 5.2 | 0.11 | 0.11 | 0.11 | 88 | 1014.6 |
| 20260903050146 | 65 | 182 | 2.6 | 4.3 | 0.11 | 0.11 | 0.11 | 88 | 1014.6 |
| 20260903050022 | 65 | 177 | 0.9 | 4.3 | 0.11 | 0.11 | 0.11 | 89 | 1014.6 |
| 20260903045916 | 65 | 181 | 0.9 | 4.3 | 0.11 | 0.11 | 0.11 | 88 | 1014.6 |
| 20260903045747 | 65 | 130 | 0.9 | 4.3 | 0.11 | 0.11 | 0.11 | 88 | 1014.5 |
| 20260903045647 | 66 | 169 | 0.9 | 2.6 | 0.10 | 0.10 | 0.10 | 88 | 1014.5 |
| 20260903045519 | 66 | 173 | 0.9 | 2.6 | 0.10 | 0.10 | 0.10 | 88 | 1014.4 |
| 20260903045432 | 66 | 173 | 0.9 | 5.2 | 0.10 | 0.10 | 0.10 | 87 | 1014.4 |
| 20260903045241 | 66 | 171 | 0.9 | 5.2 | 0.10 | 0.10 | 0.10 | 87 | 1014.4 |
| 20260903045135 | 66 | 171 | 0.9 | 5.2 | 0.10 | 0.10 | 0.10 | 87 | 1014.4 |
| 20260903045058 | 66 | 140 | 0.0 | 5.2 | 0.10 | 0.10 | 0.10 | 87 | 1014.5 |
| 20260903044928 | 66 | 140 | 0.9 | 5.2 | 0.10 | 0.10 | 0.10 | 86 | 1014.5 |
| 20260903044852 | 66 | 142 | 0.9 | 5.2 | 0.09 | 0.09 | 0.09 | 86 | 1014.5 |
| 20260903044702 | 66 | 167 | 1.7 | 5.2 | 0.04 | 0.04 | 0.04 | 86 | 1014.4 |
| 20260903044624 | 66 | 142 | 1.7 | 5.2 | 0.01 | 0.01 | 0.01 | 85 | 1014.4 |
| 20260903044428 | 66 | 186 | 2.6 | 4.3 | 0.00 | 0.00 | 0.00 | 85 | 1014.6 |
| 20260903044352 | 66 | 193 | 1.7 | 4.3 | 0.00 | 0.00 | 0.00 | 85 | 1014.6 |
| 20260903044236 | 66 | 346 | 0.0 | 0.9 | 0.00 | 0.00 | 0.00 | 86 | 1014.6 |
| 20260903044159 | 66 | 346 | 0.0 | 0.9 | 0.00 | 0.00 | 0.00 | 86 | 1014.5 |
| 20260903043942 | 66 | 346 | 0.0 | 2.6 | 0.00 | 0.00 | 0.00 | 85 | 1014.5 |
| 20260903043850 | 66 | 346 | 0.0 | 2.6 | 0.00 | 0.00 | 0.00 | 86 | 1014.4 |
| 20260903043732 | 66 | 346 | 0.0 | 3.5 | 0.00 | 0.00 | 0.00 | 85 | 1014.4 |
| 20260903043627 | 67 | 346 | 0.0 | 3.5 | 0.00 | 0.00 | 0.00 | 85 | 1014.4 |
| 20260903043532 | 67 | 346 | 0.9 | 3.5 | 0.00 | 0.00 | 0.00 | 84 | 1014.4 |
| 20260903043454 | 67 | 346 | 0.0 | 3.5 | 0.00 | 0.00 | 0.00 | 84 | 1014.5 |
| 20260903043416 | 67 | 346 | 0.0 | 3.5 | 0.00 | 0.00 | 0.00 | 85 | 1014.5 |
| 20260903043245 | 67 | 346 | 0.9 | 3.5 | 0.00 | 0.00 | 0.00 | 85 | 1014.4 |
| 20260903043139 | 67 | 346 | 1.7 | 3.5 | 0.00 | 0.00 | 0.00 | 84 | 1014.5 |
| 20260903043029 | 67 | 350 | 1.7 | 3.5 | 0.00 | 0.00 | 0.00 | 84 | 1014.5 |
| 20260903042951 | 67 | 333 | 1.7 | 2.6 | 0.00 | 0.00 | 0.00 | 84 | 1014.6 |
| 20260903042853 | 67 | 333 | 1.7 | 2.6 | 0.00 | 0.00 | 0.00 | 84 | 1014.6 |
| 20260903042758 | 67 | 333 | 1.7 | 4.3 | 0.00 | 0.00 | 0.00 | 83 | 1014.6 |
| 20260903042718 | 67 | 332 | 1.7 | 4.3 | 0.00 | 0.00 | 0.00 | 83 | 1014.5 |
| 20260903042550 | 67 | 346 | 0.9 | 4.3 | 0.00 | 0.00 | 0.00 | 83 | 1014.5 |
| 20260903042443 | 67 | 80 | 0.0 | 4.3 | 0.00 | 0.00 | 0.00 | 82 | 1014.5 |
| 20260903042314 | 67 | 94 | 0.9 | 5.2 | 0.00 | 0.00 | 0.00 | 82 | 1014.4 |
| 20260903042236 | 67 | 115 | 0.9 | 5.2 | 0.00 | 0.00 | 0.00 | 81 | 1014.3 |
| 20260903042047 | 67 | 119 | 1.7 | 5.2 | 0.00 | 0.00 | 0.00 | 81 | 1014.3 |
| 20260903041940 | 67 | 127 | 1.7 | 5.2 | 0.00 | 0.00 | 0.00 | 82 | 1014.3 |
| 20260903041829 | 68 | 141 | 1.7 | 5.2 | 0.00 | 0.00 | 0.00 | 81 | 1014.4 |
| 20260903041751 | 68 | 170 | 1.7 | 5.2 | 0.00 | 0.00 | 0.00 | 81 | 1014.5 |
| 20260903041712 | 68 | 159 | 1.7 | 5.2 | 0.00 | 0.00 | 0.00 | 81 | 1014.5 |
| 20260903041617 | 68 | 164 | 1.7 | 5.2 | 0.00 | 0.00 | 0.00 | 81 | 1014.5 |
| 20260903041539 | 68 | 153 | 1.7 | 5.2 | 0.00 | 0.00 | 0.00 | 80 | 1014.5 |
| 20260903041410 | 68 | 164 | 2.6 | 5.2 | 0.00 | 0.00 | 0.00 | 80 | 1014.6 |
| 20260903041326 | 68 | 169 | 2.6 | 4.3 | 0.00 | 0.00 | 0.00 | 80 | 1014.6 |
| 20260903041104 | 68 | 173 | 2.6 | 4.3 | 0.00 | 0.00 | 0.00 | 80 | 1014.5 |
| 20260903041027 | 68 | 150 | 2.6 | 4.3 | 0.00 | 0.00 | 0.00 | 80 | 1014.5 |
| 20260903040857 | 68 | 166 | 1.7 | 4.3 | 0.00 | 0.00 | 0.00 | 80 | 1014.6 |
| 20260903040750 | 68 | 166 | 1.7 | 4.3 | 0.00 | 0.00 | 0.00 | 79 | 1014.6 |
| 20260903040619 | 68 | 179 | 0.9 | 2.6 | 0.00 | 0.00 | 0.00 | 79 | 1014.7 |
| 20260903040542 | 68 | 142 | 0.9 | 2.6 | 0.00 | 0.00 | 0.00 | 78 | 1014.7 |
| 20260903040439 | 68 | 142 | 0.9 | 2.6 | 0.00 | 0.00 | 0.00 | 78 | 1014.7 |
| 20260903040310 | 68 | 142 | 0.9 | 2.6 | 0.00 | 0.00 | 0.00 | 78 | 1014.7 |
| 20260903040231 | 68 | 140 | 0.9 | 2.6 | 0.00 | 0.00 | 0.00 | 79 | 1014.7 |
| 20260903040055 | 68 | 127 | 0.9 | 2.6 | 0.00 | 0.00 | 0.00 | 78 | 1014.8 |
| 20260903040018 | 68 | 127 | 0.9 | 2.6 | 0.00 | 0.00 | 0.00 | 78 | 1014.8 |
| 20260903035847 | 69 | 163 | 0.9 | 2.6 | 0.00 | 0.00 | 0.00 | 78 | 1014.9 |
| 20260903035758 | 69 | 163 | 0.0 | 2.6 | 0.00 | 0.00 | 0.00 | 77 | 1014.9 |
| 20260903035640 | 69 | 181 | 0.0 | 2.6 | 0.00 | 0.00 | 0.00 | 77 | 1014.9 |
| 20260903035603 | 69 | 181 | 0.0 | 2.6 | 0.00 | 0.00 | 0.00 | 78 | 1014.9 |
| 20260903035427 | 69 | 181 | 0.0 | 2.6 | 0.00 | 0.00 | 0.00 | 78 | 1014.9 |
| 20260903035349 | 69 | 181 | 0.0 | 3.5 | 0.00 | 0.00 | 0.00 | 77 | 1014.8 |
| 20260903035135 | 69 | 181 | 0.9 | 4.3 | 0.00 | 0.00 | 0.00 | 77 | 1014.9 |
| 20260903035037 | 69 | 181 | 0.9 | 4.3 | 0.00 | 0.00 | 0.00 | 77 | 1014.9 |
| 20260903034923 | 69 | 181 | 0.9 | 4.3 | 0.00 | 0.00 | 0.00 | 77 | 1014.8 |
| 20260903034845 | 69 | 142 | 0.9 | 4.3 | 0.00 | 0.00 | 0.00 | 77 | 1014.8 |
| 20260903034629 | 69 | 142 | 1.7 | 4.3 | 0.00 | 0.00 | 0.00 | 77 | 1014.8 |
| 20260903034551 | 69 | 142 | 2.6 | 4.3 | 0.00 | 0.00 | 0.00 | 77 | 1014.7 |
| 20260903034456 | 69 | 189 | 1.7 | 4.3 | 0.00 | 0.00 | 0.00 | 77 | 1014.7 |
| 20260903034417 | 69 | 214 | 1.7 | 4.3 | 0.00 | 0.00 | 0.00 | 77 | 1014.7 |
| 20260903034228 | 69 | 163 | 1.7 | 4.3 | 0.00 | 0.00 | 0.00 | 77 | 1014.6 |
| 20260903034127 | 69 | 179 | 1.7 | 6.1 | 0.00 | 0.00 | 0.00 | 77 | 1014.6 |
| 20260903034049 | 69 | 174 | 1.7 | 6.1 | 0.00 | 0.00 | 0.00 | 77 | 1014.6 |
| 20260903033953 | 69 | 173 | 1.7 | 6.1 | 0.00 | 0.00 | 0.00 | 77 | 1014.5 |
| 20260903033916 | 69 | 163 | 1.7 | 6.1 | 0.00 | 0.00 | 0.00 | 77 | 1014.5 |
| 20260903033745 | 69 | 144 | 2.6 | 6.1 | 0.00 | 0.00 | 0.00 | 76 | 1014.5 |
| 20260903033641 | 69 | 156 | 1.7 | 6.1 | 0.00 | 0.00 | 0.00 | 76 | 1014.5 |
| 20260903033511 | 69 | 163 | 3.5 | 6.1 | 0.00 | 0.00 | 0.00 | 76 | 1014.5 |
| 20260903033433 | 69 | 167 | 3.5 | 6.1 | 0.00 | 0.00 | 0.00 | 76 | 1014.5 |
| 20260903033238 | 69 | 188 | 2.6 | 6.1 | 0.00 | 0.00 | 0.00 | 76 | 1014.6 |
| 20260903033140 | 69 | 155 | 1.7 | 6.1 | 0.00 | 0.00 | 0.00 | 76 | 1014.5 |
| 20260903033048 | 69 | 140 | 2.6 | 6.1 | 0.00 | 0.00 | 0.00 | 76 | 1014.6 |
| 20260903033008 | 69 | 161 | 2.6 | 6.1 | 0.00 | 0.00 | 0.00 | 76 | 1014.6 |
| 20260903032819 | 69 | 175 | 2.6 | 6.1 | 0.00 | 0.00 | 0.00 | 76 | 1014.7 |
| 20260903032714 | 69 | 184 | 2.6 | 6.1 | 0.00 | 0.00 | 0.00 | 76 | 1014.7 |
| 20260903032545 | 69 | 208 | 2.6 | 6.1 | 0.00 | 0.00 | 0.00 | 76 | 1014.6 |
| 20260903032446 | 69 | 190 | 2.6 | 7.0 | 0.00 | 0.00 | 0.00 | 76 | 1014.6 |
| 20260903032348 | 69 | 176 | 2.6 | 7.0 | 0.00 | 0.00 | 0.00 | 76 | 1014.4 |
| 20260903032213 | 69 | 167 | 2.6 | 9.6 | 0.00 | 0.00 | 0.00 | 76 | 1014.4 |
| 20260903032136 | 69 | 155 | 1.7 | 9.6 | 0.00 | 0.00 | 0.00 | 76 | 1014.4 |
| 20260903032007 | 69 | 173 | 2.6 | 9.6 | 0.00 | 0.00 | 0.00 | 76 | 1014.4 |
| 20260903031929 | 69 | 167 | 2.6 | 9.6 | 0.00 | 0.00 | 0.00 | 76 | 1014.4 |
| 20260903031735 | 69 | 140 | 2.6 | 9.6 | 0.00 | 0.00 | 0.00 | 76 | 1014.3 |
| 20260903031658 | 69 | 162 | 4.3 | 9.6 | 0.00 | 0.00 | 0.00 | 76 | 1014.3 |
| 20260903031542 | 69 | 138 | 7.0 | 9.6 | 0.00 | 0.00 | 0.00 | 76 | 1014.3 |
| 20260903031504 | 69 | 159 | 6.1 | 8.7 | 0.00 | 0.00 | 0.00 | 76 | 1014.3 |
| 20260903031347 | 69 | 186 | 5.2 | 9.6 | 0.00 | 0.00 | 0.00 | 76 | 1014.3 |
| 20260903031308 | 69 | 200 | 4.3 | 9.6 | 0.00 | 0.00 | 0.00 | 76 | 1014.3 |
| 20260903031119 | 69 | 175 | 3.5 | 9.6 | 0.00 | 0.00 | 0.00 | 76 | 1014.2 |
| 20260903031034 | 69 | 132 | 4.3 | 9.6 | 0.00 | 0.00 | 0.00 | 76 | 1014.2 |
| 20260903030814 | 69 | 164 | 2.6 | 10.4 | 0.00 | 0.00 | 0.00 | 76 | 1014.2 |
| 20260903030734 | 69 | 202 | 1.7 | 8.7 | 0.00 | 0.00 | 0.00 | 76 | 1014.2 |
| 20260903030606 | 69 | 193 | 3.5 | 8.7 | 0.00 | 0.00 | 0.00 | 76 | 1014.2 |
| 20260903030524 | 69 | 129 | 4.3 | 8.7 | 0.00 | 0.00 | 0.00 | 76 | 1014.2 |
| 20260903030335 | 69 | 209 | 4.3 | 8.7 | 0.00 | 0.00 | 0.00 | 76 | 1014.3 |
| 20260903030249 | 69 | 172 | 4.3 | 8.7 | 0.00 | 0.00 | 0.00 | 76 | 1014.3 |
| 20260903030121 | 69 | 169 | 3.5 | 7.0 | 0.00 | 0.00 | 0.00 | 76 | 1014.3 |
| 20260903030043 | 69 | 142 | 3.5 | 7.0 | 0.00 | 0.00 | 0.00 | 76 | 1014.3 |
| 20260903025907 | 69 | 150 | 2.6 | 6.1 | 0.00 | 0.00 | 0.00 | 76 | 1014.4 |
| 20260903025829 | 69 | 130 | 1.7 | 4.3 | 0.00 | 0.00 | 0.00 | 76 | 1014.4 |
| 20260903025633 | 69 | 121 | 1.7 | 11.3 | 0.00 | 0.00 | 0.00 | 76 | 1014.5 |
| 20260903025535 | 69 | 127 | 0.9 | 11.3 | 0.00 | 0.00 | 0.00 | 76 | 1014.5 |
| 20260903025425 | 69 | 109 | 1.7 | 11.3 | 0.00 | 0.00 | 0.00 | 76 | 1014.5 |
| 20260903025348 | 69 | 133 | 1.7 | 11.3 | 0.00 | 0.00 | 0.00 | 76 | 1014.6 |
| 20260903025218 | 69 | 121 | 1.7 | 11.3 | 0.00 | 0.00 | 0.00 | 75 | 1014.7 |
| 20260903025132 | 69 | 127 | 1.7 | 11.3 | 0.00 | 0.00 | 0.00 | 75 | 1014.7 |
| 20260903025003 | 69 | 132 | 5.2 | 11.3 | 0.00 | 0.00 | 0.00 | 75 | 1014.8 |
| 20260903024927 | 69 | 153 | 6.1 | 13.0 | 0.00 | 0.00 | 0.00 | 75 | 1014.8 |
| 20260903024730 | 69 | 172 | 5.2 | 10.4 | 0.00 | 0.00 | 0.00 | 75 | 1014.8 |
| 20260903024653 | 69 | 161 | 5.2 | 10.4 | 0.00 | 0.00 | 0.00 | 75 | 1014.8 |
| 20260903024558 | 69 | 171 | 5.2 | 10.4 | 0.00 | 0.00 | 0.00 | 75 | 1014.9 |
| 20260903024520 | 69 | 153 | 6.1 | 10.4 | 0.00 | 0.00 | 0.00 | 75 | 1015.0 |
| 20260903024441 | 69 | 134 | 6.1 | 10.4 | 0.00 | 0.00 | 0.00 | 75 | 1015.0 |
| 20260903024324 | 69 | 181 | 5.2 | 9.6 | 0.00 | 0.00 | 0.00 | 75 | 1014.9 |
| 20260903024220 | 69 | 183 | 5.2 | 9.6 | 0.00 | 0.00 | 0.00 | 75 | 1015.0 |
| 20260903024032 | 69 | 151 | 6.1 | 9.6 | 0.00 | 0.00 | 0.00 | 75 | 1015.0 |
| 20260903023957 | 69 | 117 | 6.1 | 9.6 | 0.00 | 0.00 | 0.00 | 74 | 1015.1 |
| 20260903023828 | 69 | 194 | 6.1 | 11.3 | 0.00 | 0.00 | 0.00 | 74 | 1015.2 |
| 20260903023728 | 69 | 171 | 5.2 | 10.4 | 0.00 | 0.00 | 0.00 | 75 | 1015.2 |
| 20260903023532 | 69 | 167 | 4.3 | 10.4 | 0.00 | 0.00 | 0.00 | 74 | 1015.2 |
| 20260903023456 | 69 | 194 | 4.3 | 10.4 | 0.00 | 0.00 | 0.00 | 74 | 1015.2 |
| 20260903023358 | 69 | 211 | 5.2 | 10.4 | 0.00 | 0.00 | 0.00 | 74 | 1015.2 |
| 20260903023319 | 69 | 140 | 5.2 | 9.6 | 0.00 | 0.00 | 0.00 | 74 | 1015.3 |
| 20260903023148 | 69 | 167 | 4.3 | 9.6 | 0.00 | 0.00 | 0.00 | 74 | 1015.3 |
| 20260903023027 | 69 | 194 | 5.2 | 9.6 | 0.00 | 0.00 | 0.00 | 74 | 1015.2 |
| 20260903022930 | 69 | 184 | 5.2 | 9.6 | 0.00 | 0.00 | 0.00 | 74 | 1015.2 |
| 20260903022836 | 69 | 173 | 6.1 | 12.2 | 0.00 | 0.00 | 0.00 | 74 | 1015.2 |
| 20260903022757 | 69 | 173 | 7.0 | 12.2 | 0.00 | 0.00 | 0.00 | 74 | 1015.2 |
| 20260903022642 | 69 | 146 | 6.1 | 12.2 | 0.00 | 0.00 | 0.00 | 74 | 1015.1 |
| 20260903022604 | 69 | 140 | 5.2 | 12.2 | 0.00 | 0.00 | 0.00 | 74 | 1015.2 |
| 20260903022448 | 69 | 123 | 5.2 | 12.2 | 0.00 | 0.00 | 0.00 | 74 | 1015.2 |
| 20260903022350 | 69 | 156 | 4.3 | 12.2 | 0.00 | 0.00 | 0.00 | 74 | 1015.2 |
| 20260903022221 | 69 | 163 | 4.3 | 12.2 | 0.00 | 0.00 | 0.00 | 75 | 1015.3 |
| 20260903022114 | 69 | 155 | 6.1 | 12.2 | 0.00 | 0.00 | 0.00 | 74 | 1015.3 |
| 20260903021950 | 69 | 183 | 4.3 | 11.3 | 0.00 | 0.00 | 0.00 | 74 | 1015.3 |
| 20260903021912 | 69 | 171 | 3.5 | 9.6 | 0.00 | 0.00 | 0.00 | 74 | 1015.3 |
| 20260903021814 | 69 | 199 | 2.6 | 9.6 | 0.00 | 0.00 | 0.00 | 74 | 1015.2 |
| 20260903021717 | 69 | 157 | 3.5 | 9.6 | 0.00 | 0.00 | 0.00 | 74 | 1015.2 |
| 20260903021638 | 70 | 173 | 3.5 | 9.6 | 0.00 | 0.00 | 0.00 | 74 | 1015.2 |
| 20260903021509 | 70 | 188 | 4.3 | 9.6 | 0.00 | 0.00 | 0.00 | 74 | 1015.3 |
| 20260903021424 | 70 | 207 | 4.3 | 9.6 | 0.00 | 0.00 | 0.00 | 74 | 1015.3 |
| 20260903021255 | 70 | 146 | 2.6 | 7.8 | 0.00 | 0.00 | 0.00 | 74 | 1015.3 |
| 20260903021154 | 70 | 206 | 1.7 | 7.8 | 0.00 | 0.00 | 0.00 | 74 | 1015.3 |
| 20260903021037 | 70 | 143 | 2.6 | 7.8 | 0.00 | 0.00 | 0.00 | 74 | 1015.3 |
| 20260903020940 | 70 | 196 | 3.5 | 7.8 | 0.00 | 0.00 | 0.00 | 74 | 1015.3 |
| 20260903020901 | 70 | 196 | 3.5 | 7.8 | 0.00 | 0.00 | 0.00 | 74 | 1015.3 |
| 20260903020808 | 70 | 195 | 3.5 | 7.8 | 0.00 | 0.00 | 0.00 | 74 | 1015.3 |
| 20260903020729 | 70 | 139 | 4.3 | 7.8 | 0.00 | 0.00 | 0.00 | 74 | 1015.3 |
| 20260903020601 | 70 | 168 | 4.3 | 7.8 | 0.00 | 0.00 | 0.00 | 74 | 1015.3 |
| 20260903020517 | 70 | 184 | 5.2 | 7.8 | 0.00 | 0.00 | 0.00 | 74 | 1015.3 |
| 20260903020347 | 70 | 236 | 5.2 | 7.8 | 0.00 | 0.00 | 0.00 | 74 | 1015.3 |
| 20260903020311 | 70 | 230 | 5.2 | 9.6 | 0.00 | 0.00 | 0.00 | 74 | 1015.3 |
| 20260903020023 | 70 | 203 | 3.5 | 9.6 | 0.00 | 0.00 | 0.00 | 74 | 1015.2 |
| 20260903015945 | 70 | 198 | 2.6 | 9.6 | 0.00 | 0.00 | 0.00 | 74 | 1015.1 |
| 20260903015829 | 70 | 189 | 3.5 | 9.6 | 0.00 | 0.00 | 0.00 | 74 | 1015.1 |
| 20260903015750 | 70 | 154 | 4.3 | 9.6 | 0.00 | 0.00 | 0.00 | 74 | 1015.1 |
| 20260903015621 | 70 | 181 | 4.3 | 9.6 | 0.00 | 0.00 | 0.00 | 74 | 1015.2 |
| 20260903015540 | 70 | 129 | 3.5 | 9.6 | 0.00 | 0.00 | 0.00 | 74 | 1015.2 |
| 20260903015410 | 70 | 140 | 3.5 | 9.6 | 0.00 | 0.00 | 0.00 | 74 | 1015.2 |
| 20260903015332 | 70 | 130 | 3.5 | 9.6 | 0.00 | 0.00 | 0.00 | 74 | 1015.2 |
| 20260903015136 | 70 | 161 | 6.1 | 9.6 | 0.00 | 0.00 | 0.00 | 74 | 1015.2 |
| 20260903015058 | 70 | 168 | 5.2 | 9.6 | 0.00 | 0.00 | 0.00 | 74 | 1015.3 |
| 20260903015005 | 70 | 181 | 4.3 | 7.0 | 0.00 | 0.00 | 0.00 | 74 | 1015.3 |
| 20260903014927 | 70 | 146 | 3.5 | 9.6 | 0.00 | 0.00 | 0.00 | 74 | 1015.3 |
| 20260903014731 | 70 | 170 | 4.3 | 9.6 | 0.00 | 0.00 | 0.00 | 74 | 1015.4 |
| 20260903014634 | 70 | 173 | 3.5 | 10.4 | 0.00 | 0.00 | 0.00 | 74 | 1015.5 |
| 20260903014524 | 70 | 169 | 3.5 | 11.3 | 0.00 | 0.00 | 0.00 | 74 | 1015.5 |
| 20260903014445 | 70 | 170 | 4.3 | 11.3 | 0.00 | 0.00 | 0.00 | 74 | 1015.4 |
| 20260903014244 | 70 | 173 | 4.3 | 11.3 | 0.00 | 0.00 | 0.00 | 74 | 1015.4 |
| 20260903014139 | 70 | 189 | 4.3 | 11.3 | 0.00 | 0.00 | 0.00 | 74 | 1015.5 |
| 20260903014009 | 70 | 192 | 5.2 | 11.3 | 0.00 | 0.00 | 0.00 | 74 | 1015.5 |
| 20260903013930 | 70 | 161 | 7.0 | 11.3 | 0.00 | 0.00 | 0.00 | 74 | 1015.5 |
| 20260903013735 | 69 | 187 | 7.0 | 10.4 | 0.00 | 0.00 | 0.00 | 74 | 1015.6 |
| 20260903013658 | 70 | 223 | 5.2 | 9.6 | 0.00 | 0.00 | 0.00 | 75 | 1015.6 |
| 20260903013524 | 69 | 151 | 3.5 | 7.0 | 0.00 | 0.00 | 0.00 | 75 | 1015.8 |
| 20260903013438 | 69 | 159 | 3.5 | 7.0 | 0.00 | 0.00 | 0.00 | 75 | 1015.8 |
| 20260903013313 | 69 | 172 | 4.3 | 7.0 | 0.00 | 0.00 | 0.00 | 75 | 1015.8 |
| 20260903013234 | 69 | 144 | 4.3 | 7.0 | 0.00 | 0.00 | 0.00 | 75 | 1015.8 |
| 20260903013105 | 69 | 159 | 3.5 | 6.1 | 0.00 | 0.00 | 0.00 | 75 | 1015.8 |
| 20260903013021 | 69 | 186 | 4.3 | 6.1 | 0.00 | 0.00 | 0.00 | 75 | 1015.9 |
| 20260903012830 | 69 | 169 | 2.6 | 7.0 | 0.00 | 0.00 | 0.00 | 75 | 1015.9 |
| 20260903012745 | 69 | 158 | 2.6 | 7.0 | 0.00 | 0.00 | 0.00 | 75 | 1016.0 |
| 20260903012535 | 69 | 173 | 3.5 | 7.0 | 0.00 | 0.00 | 0.00 | 75 | 1016.0 |
| 20260903012430 | 69 | 159 | 2.6 | 7.0 | 0.00 | 0.00 | 0.00 | 75 | 1016.0 |
| 20260903012324 | 70 | 140 | 2.6 | 7.0 | 0.00 | 0.00 | 0.00 | 75 | 1016.0 |
| 20260903012249 | 69 | 142 | 3.5 | 7.0 | 0.00 | 0.00 | 0.00 | 75 | 1015.9 |
| 20260903012119 | 69 | 154 | 2.6 | 7.8 | 0.00 | 0.00 | 0.00 | 75 | 1015.9 |
| 20260903012034 | 69 | 200 | 0.9 | 7.0 | 0.00 | 0.00 | 0.00 | 75 | 1015.9 |
| 20260903011904 | 69 | 273 | 2.6 | 7.0 | 0.00 | 0.00 | 0.00 | 75 | 1015.8 |
| 20260903011826 | 70 | 155 | 3.5 | 7.0 | 0.00 | 0.00 | 0.00 | 75 | 1015.8 |
| 20260903011631 | 70 | 190 | 3.5 | 7.0 | 0.00 | 0.00 | 0.00 | 75 | 1015.8 |
| 20260903011553 | 70 | 142 | 3.5 | 7.0 | 0.00 | 0.00 | 0.00 | 75 | 1015.8 |
| 20260903011438 | 70 | 147 | 3.5 | 7.8 | 0.00 | 0.00 | 0.00 | 75 | 1015.8 |
| 20260903011401 | 69 | 190 | 3.5 | 7.8 | 0.00 | 0.00 | 0.00 | 75 | 1015.8 |
| 20260903011223 | 70 | 159 | 4.3 | 7.8 | 0.00 | 0.00 | 0.00 | 75 | 1015.8 |
| 20260903011149 | 70 | 176 | 4.3 | 7.8 | 0.00 | 0.00 | 0.00 | 75 | 1015.7 |
| 20260903011021 | 70 | 192 | 2.6 | 7.8 | 0.00 | 0.00 | 0.00 | 75 | 1015.8 |
| 20260903010926 | 70 | 154 | 1.7 | 7.8 | 0.00 | 0.00 | 0.00 | 76 | 1015.8 |
| 20260903010746 | 70 | 131 | 4.3 | 7.8 | 0.00 | 0.00 | 0.00 | 76 | 1015.7 |
| 20260903010557 | 70 | 183 | 1.7 | 5.2 | 0.00 | 0.00 | 0.00 | 76 | 1015.6 |
| 20260903010450 | 70 | 164 | 1.7 | 5.2 | 0.00 | 0.00 | 0.00 | 76 | 1015.7 |
| 20260903010321 | 70 | 153 | 2.6 | 7.0 | 0.00 | 0.00 | 0.00 | 76 | 1015.6 |
| 20260903010242 | 70 | 154 | 2.6 | 7.0 | 0.00 | 0.00 | 0.00 | 75 | 1015.6 |
| 20260903010043 | 70 | 199 | 2.6 | 7.0 | 0.00 | 0.00 | 0.00 | 76 | 1015.6 |
| 20260903010005 | 70 | 171 | 2.6 | 7.0 | 0.00 | 0.00 | 0.00 | 76 | 1015.5 |
| 20260903005827 | 70 | 173 | 2.6 | 7.0 | 0.00 | 0.00 | 0.00 | 76 | 1015.6 |
| 20260903005743 | 70 | 196 | 2.6 | 7.0 | 0.00 | 0.00 | 0.00 | 76 | 1015.6 |
| 20260903005619 | 70 | 187 | 3.5 | 7.0 | 0.00 | 0.00 | 0.00 | 76 | 1015.6 |
| 20260903005541 | 70 | 207 | 3.5 | 6.1 | 0.00 | 0.00 | 0.00 | 76 | 1015.6 |
| 20260903005325 | 70 | 155 | 3.5 | 6.1 | 0.00 | 0.00 | 0.00 | 76 | 1015.5 |
| 20260903005247 | 70 | 182 | 2.6 | 6.1 | 0.00 | 0.00 | 0.00 | 76 | 1015.5 |
| 20260903005131 | 70 | 194 | 1.7 | 6.1 | 0.00 | 0.00 | 0.00 | 76 | 1015.5 |
| 20260903005053 | 70 | 198 | 2.6 | 6.1 | 0.00 | 0.00 | 0.00 | 76 | 1015.5 |
| 20260903005016 | 70 | 198 | 4.3 | 6.1 | 0.00 | 0.00 | 0.00 | 76 | 1015.5 |
| 20260903004920 | 70 | 192 | 4.3 | 7.0 | 0.00 | 0.00 | 0.00 | 75 | 1015.5 |
| 20260903004841 | 70 | 128 | 3.5 | 7.8 | 0.00 | 0.00 | 0.00 | 76 | 1015.5 |
| 20260903004712 | 70 | 146 | 3.5 | 7.8 | 0.00 | 0.00 | 0.00 | 76 | 1015.4 |
| 20260903004626 | 70 | 155 | 3.5 | 7.8 | 0.00 | 0.00 | 0.00 | 76 | 1015.4 |
| 20260903004442 | 70 | 174 | 2.6 | 7.8 | 0.00 | 0.00 | 0.00 | 76 | 1015.4 |
| 20260903004338 | 70 | 154 | 2.6 | 7.8 | 0.00 | 0.00 | 0.00 | 76 | 1015.4 |
| 20260903004223 | 70 | 190 | 4.3 | 7.8 | 0.00 | 0.00 | 0.00 | 76 | 1015.4 |
| 20260903004144 | 70 | 227 | 4.3 | 7.8 | 0.00 | 0.00 | 0.00 | 76 | 1015.4 |
| 20260903004016 | 70 | 171 | 3.5 | 8.7 | 0.00 | 0.00 | 0.00 | 76 | 1015.4 |
| 20260903003932 | 70 | 178 | 2.6 | 8.7 | 0.00 | 0.00 | 0.00 | 76 | 1015.4 |
| 20260903003802 | 70 | 178 | 3.5 | 8.7 | 0.00 | 0.00 | 0.00 | 76 | 1015.4 |
| 20260903003724 | 70 | 178 | 4.3 | 8.7 | 0.00 | 0.00 | 0.00 | 76 | 1015.4 |
| 20260903003529 | 69 | 173 | 4.3 | 8.7 | 0.00 | 0.00 | 0.00 | 76 | 1015.4 |
| 20260903003505 | 69 | 115 | 3.5 | 8.7 | 0.00 | 0.00 | 0.00 | 77 | 1015.3 |
| 20260903003244 | 69 | 170 | 3.5 | 9.6 | 0.00 | 0.00 | 0.00 | 77 | 1015.3 |
| 20260903003139 | 69 | 157 | 2.6 | 7.0 | 0.00 | 0.00 | 0.00 | 77 | 1015.3 |
| 20260903003024 | 69 | 181 | 4.3 | 7.0 | 0.00 | 0.00 | 0.00 | 77 | 1015.3 |
| 20260903002946 | 69 | 171 | 4.3 | 7.0 | 0.00 | 0.00 | 0.00 | 77 | 1015.3 |
| 20260903002818 | 69 | 153 | 3.5 | 7.0 | 0.00 | 0.00 | 0.00 | 77 | 1015.3 |
| 20260903002730 | 69 | 194 | 3.5 | 7.0 | 0.00 | 0.00 | 0.00 | 78 | 1015.3 |
| 20260903002601 | 69 | 159 | 4.3 | 7.0 | 0.00 | 0.00 | 0.00 | 78 | 1015.4 |
| 20260903002502 | 69 | 174 | 3.5 | 7.8 | 0.00 | 0.00 | 0.00 | 77 | 1015.4 |
| 20260903002405 | 69 | 159 | 3.5 | 7.8 | 0.00 | 0.00 | 0.00 | 78 | 1015.4 |
| 20260903002325 | 69 | 168 | 2.6 | 7.8 | 0.00 | 0.00 | 0.00 | 78 | 1015.4 |
| 20260903002140 | 69 | 140 | 1.7 | 7.8 | 0.00 | 0.00 | 0.00 | 78 | 1015.5 |
| 20260903002037 | 69 | 169 | 3.5 | 7.8 | 0.00 | 0.00 | 0.00 | 78 | 1015.5 |
| 20260903001959 | 69 | 238 | 3.5 | 7.8 | 0.00 | 0.00 | 0.00 | 77 | 1015.4 |
| 20260903001904 | 69 | 173 | 3.5 | 7.8 | 0.00 | 0.00 | 0.00 | 77 | 1015.4 |
| 20260903001827 | 69 | 217 | 3.5 | 7.8 | 0.00 | 0.00 | 0.00 | 77 | 1015.4 |
| 20260903001628 | 69 | 238 | 1.7 | 7.8 | 0.00 | 0.00 | 0.00 | 77 | 1015.3 |
| 20260903001542 | 69 | 203 | 1.7 | 7.8 | 0.00 | 0.00 | 0.00 | 77 | 1015.4 |
| 20260903001426 | 69 | 202 | 3.5 | 7.8 | 0.00 | 0.00 | 0.00 | 77 | 1015.3 |
| 20260903001351 | 69 | 198 | 3.5 | 7.8 | 0.00 | 0.00 | 0.00 | 77 | 1015.2 |
| 20260903001307 | 69 | 184 | 4.3 | 7.8 | 0.00 | 0.00 | 0.00 | 77 | 1015.2 |
| 20260903001128 | 69 | 215 | 4.3 | 7.8 | 0.00 | 0.00 | 0.00 | 77 | 1015.1 |
| 20260903001045 | 69 | 122 | 3.5 | 7.8 | 0.00 | 0.00 | 0.00 | 77 | 1015.1 |
| 20260903000915 | 69 | 163 | 3.5 | 7.0 | 0.00 | 0.00 | 0.00 | 78 | 1014.9 |
| 20260903000838 | 69 | 185 | 3.5 | 7.0 | 0.00 | 0.00 | 0.00 | 78 | 1014.9 |
| 20260903000709 | 69 | 156 | 2.6 | 7.0 | 0.00 | 0.00 | 0.00 | 78 | 1014.9 |
| 20260903000633 | 69 | 132 | 2.6 | 7.0 | 0.00 | 0.00 | 0.00 | 78 | 1014.9 |
| 20260903000417 | 69 | 193 | 3.5 | 7.8 | 0.00 | 0.00 | 0.00 | 78 | 1015.0 |
| 20260903000347 | 69 | 159 | 4.3 | 7.8 | 0.00 | 0.00 | 0.00 | 78 | 1014.9 |
| 20260903000242 | 69 | 175 | 3.5 | 7.8 | 0.00 | 0.00 | 0.00 | 78 | 1014.9 |
| 20260903000134 | 69 | 163 | 4.3 | 7.8 | 0.00 | 0.00 | 0.00 | 78 | 1014.9 |
| 20260902235945 | 69 | 166 | 4.3 | 7.8 | 0.00 | 0.00 | 0.00 | 78 | 1014.9 |
| 20260902235841 | 69 | 175 | 4.3 | 7.8 | 0.00 | 0.00 | 0.00 | 78 | 1015.0 |
| 20260902235726 | 69 | 166 | 4.3 | 7.8 | 0.00 | 0.00 | 0.00 | 78 | 1015.1 |
| 20260902235648 | 69 | 162 | 4.3 | 7.8 | 0.00 | 0.00 | 0.00 | 78 | 1015.1 |
| 20260902235519 | 69 | 140 | 4.3 | 8.7 | 0.00 | 0.00 | 0.00 | 78 | 1015.2 |
| 20260902235433 | 69 | 121 | 3.5 | 7.8 | 0.00 | 0.00 | 0.00 | 78 | 1015.2 |
| 20260902235306 | 69 | 190 | 4.3 | 7.8 | 0.00 | 0.00 | 0.00 | 78 | 1015.3 |
| 20260902235225 | 69 | 147 | 4.3 | 7.8 | 0.00 | 0.00 | 0.00 | 78 | 1015.3 |
| 20260902235100 | 69 | 148 | 4.3 | 7.8 | 0.00 | 0.00 | 0.00 | 78 | 1015.4 |
| 20260902235016 | 69 | 172 | 3.5 | 7.0 | 0.00 | 0.00 | 0.00 | 78 | 1015.3 |
| 20260902234826 | 69 | 161 | 2.6 | 7.0 | 0.00 | 0.00 | 0.00 | 78 | 1015.3 |
| 20260902234740 | 69 | 159 | 2.6 | 7.0 | 0.00 | 0.00 | 0.00 | 78 | 1015.4 |
| 20260902234611 | 69 | 205 | 3.5 | 7.0 | 0.00 | 0.00 | 0.00 | 78 | 1015.5 |
| 20260902234532 | 69 | 200 | 3.5 | 7.0 | 0.00 | 0.00 | 0.00 | 77 | 1015.5 |
| 20260902234336 | 69 | 180 | 2.6 | 5.2 | 0.00 | 0.00 | 0.00 | 77 | 1015.5 |
| 20260902234257 | 69 | 188 | 2.6 | 5.2 | 0.00 | 0.00 | 0.00 | 77 | 1015.5 |
| 20260902234142 | 69 | 219 | 3.5 | 5.2 | 0.00 | 0.00 | 0.00 | 77 | 1015.5 |
| 20260902234103 | 69 | 207 | 3.5 | 5.2 | 0.00 | 0.00 | 0.00 | 78 | 1015.5 |
| 20260902233910 | 69 | 200 | 3.5 | 5.2 | 0.00 | 0.00 | 0.00 | 77 | 1015.4 |
| 20260902233831 | 69 | 184 | 2.6 | 5.2 | 0.00 | 0.00 | 0.00 | 77 | 1015.4 |
| 20260902233643 | 69 | 157 | 1.7 | 4.3 | 0.00 | 0.00 | 0.00 | 78 | 1015.3 |
| 20260902233538 | 69 | 147 | 2.6 | 4.3 | 0.00 | 0.00 | 0.00 | 78 | 1015.4 |
| 20260902233423 | 69 | 154 | 3.5 | 4.3 | 0.00 | 0.00 | 0.00 | 77 | 1015.4 |
| 20260902233344 | 69 | 161 | 2.6 | 4.3 | 0.00 | 0.00 | 0.00 | 78 | 1015.4 |
| 20260902233308 | 69 | 145 | 2.6 | 4.3 | 0.00 | 0.00 | 0.00 | 78 | 1015.4 |
| 20260902233213 | 69 | 166 | 2.6 | 5.2 | 0.00 | 0.00 | 0.00 | 78 | 1015.4 |
| 20260902233134 | 69 | 151 | 1.7 | 5.2 | 0.00 | 0.00 | 0.00 | 78 | 1015.4 |
| 20260902233005 | 69 | 146 | 0.9 | 6.1 | 0.00 | 0.00 | 0.00 | 78 | 1015.3 |
| 20260902232925 | 69 | 146 | 1.7 | 6.1 | 0.00 | 0.00 | 0.00 | 78 | 1015.3 |
| 20260902232742 | 69 | 154 | 2.6 | 7.0 | 0.00 | 0.00 | 0.00 | 78 | 1015.3 |
| 20260902232534 | 69 | 148 | 1.7 | 7.0 | 0.00 | 0.00 | 0.00 | 77 | 1015.3 |
| 20260902232448 | 69 | 146 | 1.7 | 7.0 | 0.00 | 0.00 | 0.00 | 78 | 1015.3 |
| 20260902232318 | 69 | 143 | 2.6 | 7.0 | 0.00 | 0.00 | 0.00 | 77 | 1015.4 |
| 20260902232219 | 69 | 145 | 3.5 | 7.0 | 0.00 | 0.00 | 0.00 | 77 | 1015.4 |
| 20260902232041 | 70 | 139 | 2.6 | 7.0 | 0.00 | 0.00 | 0.00 | 77 | 1015.5 |
| 20260902231943 | 70 | 119 | 0.9 | 6.1 | 0.00 | 0.00 | 0.00 | 77 | 1015.6 |
| 20260902231828 | 70 | 146 | 2.6 | 6.1 | 0.00 | 0.00 | 0.00 | 77 | 1015.7 |
| 20260902231749 | 70 | 151 | 3.5 | 6.1 | 0.00 | 0.00 | 0.00 | 76 | 1015.8 |
| 20260902231617 | 70 | 145 | 2.6 | 7.8 | 0.00 | 0.00 | 0.00 | 76 | 1015.9 |
| 20260902231538 | 70 | 163 | 2.6 | 7.8 | 0.00 | 0.00 | 0.00 | 76 | 1015.9 |
| 20260902231419 | 70 | 236 | 2.6 | 7.8 | 0.00 | 0.00 | 0.00 | 76 | 1015.9 |
| 20260902231335 | 70 | 154 | 2.6 | 7.8 | 0.00 | 0.00 | 0.00 | 76 | 1015.9 |
| 20260902231205 | 70 | 223 | 2.6 | 7.8 | 0.00 | 0.00 | 0.00 | 76 | 1015.9 |
| 20260902231126 | 70 | 156 | 3.5 | 7.8 | 0.00 | 0.00 | 0.00 | 76 | 1015.9 |
| 20260902230958 | 70 | 184 | 3.5 | 7.8 | 0.00 | 0.00 | 0.00 | 76 | 1015.8 |
| 20260902230832 | 70 | 153 | 4.3 | 7.8 | 0.00 | 0.00 | 0.00 | 76 | 1015.9 |
| 20260902230755 | 70 | 163 | 4.3 | 8.7 | 0.00 | 0.00 | 0.00 | 76 | 1015.9 |
| 20260902230700 | 70 | 192 | 3.5 | 7.8 | 0.00 | 0.00 | 0.00 | 76 | 1015.9 |
| 20260902230622 | 70 | 182 | 3.5 | 7.8 | 0.00 | 0.00 | 0.00 | 76 | 1015.9 |
| 20260902230430 | 70 | 183 | 1.7 | 13.0 | 0.00 | 0.00 | 0.00 | 76 | 1015.9 |
| 20260902230332 | 70 | 144 | 2.6 | 13.0 | 0.00 | 0.00 | 0.00 | 76 | 1015.9 |
| 20260902230237 | 70 | 173 | 2.6 | 13.0 | 0.00 | 0.00 | 0.00 | 76 | 1015.9 |
| 20260902230140 | 70 | 171 | 2.6 | 13.0 | 0.00 | 0.00 | 0.00 | 76 | 1015.9 |
| 20260902230056 | 70 | 167 | 3.5 | 13.0 | 0.00 | 0.00 | 0.00 | 76 | 1015.9 |
| 20260902230018 | 70 | 173 | 3.5 | 13.0 | 0.00 | 0.00 | 0.00 | 76 | 1015.9 |
| 20260902225940 | 70 | 133 | 4.3 | 13.0 | 0.00 | 0.00 | 0.00 | 76 | 1015.9 |
| 20260902225723 | 70 | 180 | 6.1 | 13.0 | 0.00 | 0.00 | 0.00 | 75 | 1016.0 |
| 20260902225646 | 70 | 165 | 4.3 | 13.9 | 0.00 | 0.00 | 0.00 | 76 | 1016.0 |
| 20260902225535 | 70 | 169 | 2.6 | 7.8 | 0.00 | 0.00 | 0.00 | 76 | 1015.9 |
| 20260902225458 | 70 | 159 | 2.6 | 7.8 | 0.00 | 0.00 | 0.00 | 76 | 1016.0 |
| 20260902225341 | 70 | 157 | 1.7 | 7.8 | 0.00 | 0.00 | 0.00 | 76 | 1016.0 |
| 20260902225306 | 70 | 188 | 3.5 | 7.8 | 0.00 | 0.00 | 0.00 | 75 | 1016.0 |
| 20260902225134 | 70 | 179 | 3.5 | 7.8 | 0.00 | 0.00 | 0.00 | 76 | 1016.1 |
| 20260902225028 | 70 | 114 | 2.6 | 7.8 | 0.00 | 0.00 | 0.00 | 76 | 1016.1 |
| 20260902224858 | 70 | 173 | 5.2 | 7.8 | 0.00 | 0.00 | 0.00 | 75 | 1016.2 |
| 20260902224820 | 70 | 190 | 5.2 | 7.8 | 0.00 | 0.00 | 0.00 | 75 | 1016.2 |
| 20260902224642 | 70 | 151 | 4.3 | 8.7 | 0.00 | 0.00 | 0.00 | 75 | 1016.2 |
| 20260902224545 | 70 | 213 | 5.2 | 7.8 | 0.00 | 0.00 | 0.00 | 75 | 1016.2 |
| 20260902224435 | 70 | 171 | 4.3 | 7.8 | 0.00 | 0.00 | 0.00 | 75 | 1016.3 |
| 20260902224357 | 70 | 93 | 2.6 | 7.8 | 0.00 | 0.00 | 0.00 | 75 | 1016.2 |
| 20260902224320 | 70 | 137 | 3.5 | 7.8 | 0.00 | 0.00 | 0.00 | 75 | 1016.3 |
| 20260902224225 | 71 | 175 | 4.3 | 7.8 | 0.00 | 0.00 | 0.00 | 75 | 1016.4 |
| 20260902224125 | 71 | 175 | 3.5 | 7.8 | 0.00 | 0.00 | 0.00 | 75 | 1016.4 |
| 20260902223929 | 71 | 136 | 1.7 | 7.8 | 0.00 | 0.00 | 0.00 | 75 | 1016.6 |
| 20260902223832 | 71 | 200 | 2.6 | 7.8 | 0.00 | 0.00 | 0.00 | 75 | 1016.6 |
| 20260902223737 | 71 | 235 | 2.6 | 7.8 | 0.00 | 0.00 | 0.00 | 75 | 1016.6 |
| 20260902223658 | 71 | 237 | 2.6 | 8.7 | 0.00 | 0.00 | 0.00 | 75 | 1016.6 |
| 20260902223622 | 71 | 248 | 1.7 | 8.7 | 0.00 | 0.00 | 0.00 | 75 | 1016.6 |
| 20260902223527 | 71 | 211 | 1.7 | 8.7 | 0.00 | 0.00 | 0.00 | 75 | 1016.5 |
| 20260902223432 | 71 | 205 | 1.7 | 8.7 | 0.00 | 0.00 | 0.00 | 75 | 1016.5 |
| 20260902223243 | 71 | 128 | 4.3 | 8.7 | 0.00 | 0.00 | 0.00 | 75 | 1016.4 |
| 20260902223156 | 71 | 161 | 3.5 | 8.7 | 0.00 | 0.00 | 0.00 | 75 | 1016.4 |
| 20260902223006 | 71 | 157 | 4.3 | 12.2 | 0.00 | 0.00 | 0.00 | 75 | 1016.2 |
| 20260902222929 | 71 | 194 | 4.3 | 12.2 | 0.00 | 0.00 | 0.00 | 75 | 1016.2 |
| 20260902222752 | 71 | 173 | 2.6 | 12.2 | 0.00 | 0.00 | 0.00 | 75 | 1016.1 |
| 20260902222724 | 71 | 142 | 2.6 | 12.2 | 0.00 | 0.00 | 0.00 | 75 | 1016.1 |
| 20260902222556 | 71 | 118 | 3.5 | 12.2 | 0.00 | 0.00 | 0.00 | 75 | 1016.1 |
| 20260902222511 | 71 | 156 | 4.3 | 12.2 | 0.00 | 0.00 | 0.00 | 75 | 1016.1 |
| 20260902222250 | 71 | 165 | 5.2 | 13.0 | 0.00 | 0.00 | 0.00 | 75 | 1016.3 |
| 20260902222152 | 71 | 223 | 4.3 | 13.0 | 0.00 | 0.00 | 0.00 | 75 | 1016.4 |
| 20260902222042 | 71 | 184 | 6.1 | 13.0 | 0.00 | 0.00 | 0.00 | 75 | 1016.4 |
| 20260902222002 | 71 | 125 | 5.2 | 13.0 | 0.00 | 0.00 | 0.00 | 75 | 1016.4 |
| 20260902221834 | 71 | 166 | 4.3 | 13.0 | 0.00 | 0.00 | 0.00 | 75 | 1016.5 |
| 20260902221728 | 71 | 109 | 7.0 | 13.0 | 0.00 | 0.00 | 0.00 | 75 | 1016.5 |
| 20260902221559 | 71 | 164 | 5.2 | 13.0 | 0.00 | 0.00 | 0.00 | 75 | 1016.5 |
| 20260902221521 | 71 | 179 | 5.2 | 10.4 | 0.00 | 0.00 | 0.00 | 75 | 1016.5 |
| 20260902221332 | 71 | 140 | 5.2 | 12.2 | 0.00 | 0.00 | 0.00 | 75 | 1016.6 |
| 20260902221253 | 71 | 156 | 4.3 | 12.2 | 0.00 | 0.00 | 0.00 | 76 | 1016.6 |
| 20260902221123 | 71 | 163 | 3.5 | 12.2 | 0.00 | 0.00 | 0.00 | 75 | 1016.6 |
| 20260902221017 | 71 | 159 | 3.5 | 12.2 | 0.00 | 0.00 | 0.00 | 76 | 1016.6 |
| 20260902220828 | 71 | 171 | 4.3 | 12.2 | 0.00 | 0.00 | 0.00 | 76 | 1016.7 |
| 20260902220742 | 71 | 180 | 4.3 | 12.2 | 0.00 | 0.00 | 0.00 | 76 | 1016.7 |
| 20260902220617 | 71 | 171 | 5.2 | 12.2 | 0.00 | 0.00 | 0.00 | 75 | 1016.7 |
| 20260902220540 | 71 | 148 | 5.2 | 12.2 | 0.00 | 0.00 | 0.00 | 76 | 1016.7 |
| 20260902220410 | 71 | 146 | 4.3 | 8.7 | 0.00 | 0.00 | 0.00 | 76 | 1016.8 |
| 20260902220325 | 71 | 170 | 4.3 | 8.7 | 0.00 | 0.00 | 0.00 | 76 | 1016.8 |
| 20260902220155 | 71 | 154 | 5.2 | 8.7 | 0.00 | 0.00 | 0.00 | 75 | 1017.0 |
| 20260902220118 | 71 | 134 | 5.2 | 8.7 | 0.00 | 0.00 | 0.00 | 76 | 1017.0 |
| 20260902220002 | 71 | 173 | 5.2 | 8.7 | 0.00 | 0.00 | 0.00 | 75 | 1017.2 |
| 20260902215923 | 71 | 144 | 5.2 | 8.7 | 0.00 | 0.00 | 0.00 | 75 | 1017.2 |
| 20260902215754 | 71 | 163 | 4.3 | 8.7 | 0.00 | 0.00 | 0.00 | 75 | 1017.3 |
| 20260902215707 | 71 | 169 | 2.6 | 8.7 | 0.00 | 0.00 | 0.00 | 75 | 1017.3 |
| 20260902215539 | 71 | 188 | 2.6 | 8.7 | 0.00 | 0.00 | 0.00 | 75 | 1017.3 |
| 20260902215440 | 71 | 171 | 3.5 | 8.7 | 0.00 | 0.00 | 0.00 | 75 | 1017.3 |
| 20260902215311 | 71 | 227 | 5.2 | 8.7 | 0.00 | 0.00 | 0.00 | 75 | 1017.3 |
| 20260902215229 | 71 | 146 | 5.2 | 10.4 | 0.00 | 0.00 | 0.00 | 75 | 1017.3 |
| 20260902215101 | 71 | 146 | 2.6 | 9.6 | 0.00 | 0.00 | 0.00 | 75 | 1017.3 |
| 20260902215024 | 71 | 192 | 3.5 | 9.6 | 0.00 | 0.00 | 0.00 | 75 | 1017.3 |
| 20260902214829 | 71 | 185 | 3.5 | 9.6 | 0.00 | 0.00 | 0.00 | 75 | 1017.4 |
| 20260902214751 | 71 | 173 | 4.3 | 9.6 | 0.00 | 0.00 | 0.00 | 75 | 1017.4 |
| 20260902214636 | 71 | 205 | 7.0 | 9.6 | 0.00 | 0.00 | 0.00 | 74 | 1017.3 |
| 20260902214601 | 71 | 169 | 7.8 | 9.6 | 0.00 | 0.00 | 0.00 | 74 | 1017.3 |
| 20260902214521 | 71 | 157 | 7.0 | 9.6 | 0.00 | 0.00 | 0.00 | 74 | 1017.3 |
| 20260902214427 | 72 | 157 | 6.1 | 10.4 | 0.00 | 0.00 | 0.00 | 74 | 1017.3 |
| 20260902214329 | 72 | 197 | 5.2 | 7.8 | 0.00 | 0.00 | 0.00 | 74 | 1017.3 |
| 20260902214138 | 72 | 175 | 4.3 | 7.8 | 0.00 | 0.00 | 0.00 | 74 | 1017.2 |
| 20260902214041 | 72 | 213 | 4.3 | 6.1 | 0.00 | 0.00 | 0.00 | 74 | 1017.2 |
| 20260902213944 | 72 | 160 | 3.5 | 6.1 | 0.00 | 0.00 | 0.00 | 74 | 1017.2 |
| 20260902213837 | 72 | 162 | 3.5 | 6.1 | 0.00 | 0.00 | 0.00 | 74 | 1017.3 |
| 20260902213741 | 72 | 128 | 4.3 | 7.0 | 0.00 | 0.00 | 0.00 | 74 | 1017.3 |
| 20260902213643 | 72 | 186 | 4.3 | 7.0 | 0.00 | 0.00 | 0.00 | 75 | 1017.3 |
| 20260902213607 | 72 | 164 | 4.3 | 7.0 | 0.00 | 0.00 | 0.00 | 74 | 1017.3 |
| 20260902213511 | 72 | 145 | 4.3 | 7.8 | 0.00 | 0.00 | 0.00 | 75 | 1017.4 |
| 20260902213433 | 72 | 167 | 3.5 | 7.0 | 0.00 | 0.00 | 0.00 | 75 | 1017.4 |
| 20260902213305 | 72 | 207 | 3.5 | 7.0 | 0.00 | 0.00 | 0.00 | 74 | 1017.4 |
| 20260902213224 | 72 | 159 | 3.5 | 7.0 | 0.00 | 0.00 | 0.00 | 74 | 1017.4 |
| 20260902213054 | 72 | 159 | 5.2 | 7.0 | 0.00 | 0.00 | 0.00 | 74 | 1017.5 |
| 20260902213016 | 72 | 150 | 4.3 | 7.8 | 0.00 | 0.00 | 0.00 | 74 | 1017.5 |
| 20260902212841 | 72 | 177 | 3.5 | 7.0 | 0.00 | 0.00 | 0.00 | 74 | 1017.5 |
| 20260902212744 | 72 | 175 | 3.5 | 7.0 | 0.00 | 0.00 | 0.00 | 74 | 1017.5 |
| 20260902212628 | 72 | 164 | 3.5 | 7.0 | 0.00 | 0.00 | 0.00 | 74 | 1017.5 |
| 20260902212550 | 72 | 204 | 3.5 | 7.0 | 0.00 | 0.00 | 0.00 | 74 | 1017.5 |
| 20260902212513 | 72 | 190 | 3.5 | 7.8 | 0.00 | 0.00 | 0.00 | 74 | 1017.6 |
| 20260902212418 | 72 | 200 | 4.3 | 7.8 | 0.00 | 0.00 | 0.00 | 74 | 1017.6 |
| 20260902212340 | 72 | 229 | 4.3 | 7.8 | 0.00 | 0.00 | 0.00 | 73 | 1017.6 |
| 20260902212210 | 72 | 202 | 3.5 | 7.8 | 0.00 | 0.00 | 0.00 | 74 | 1017.6 |
| 20260902212130 | 72 | 227 | 3.5 | 7.8 | 0.00 | 0.00 | 0.00 | 74 | 1017.6 |
| 20260902212001 | 72 | 171 | 2.6 | 6.1 | 0.00 | 0.00 | 0.00 | 74 | 1017.6 |
| 20260902211923 | 72 | 171 | 2.6 | 6.1 | 0.00 | 0.00 | 0.00 | 73 | 1017.6 |
| 20260902211724 | 72 | 161 | 3.5 | 6.1 | 0.00 | 0.00 | 0.00 | 74 | 1017.6 |
| 20260902211647 | 72 | 196 | 2.6 | 6.1 | 0.00 | 0.00 | 0.00 | 73 | 1017.5 |
| 20260902211533 | 72 | 187 | 1.7 | 6.1 | 0.00 | 0.00 | 0.00 | 73 | 1017.6 |
| 20260902211455 | 72 | 167 | 2.6 | 6.1 | 0.00 | 0.00 | 0.00 | 73 | 1017.6 |
| 20260902211418 | 72 | 171 | 2.6 | 7.0 | 0.00 | 0.00 | 0.00 | 73 | 1017.6 |
| 20260902211241 | 72 | 140 | 2.6 | 7.0 | 0.00 | 0.00 | 0.00 | 73 | 1017.6 |
| 20260902211201 | 72 | 198 | 1.7 | 7.0 | 0.00 | 0.00 | 0.00 | 73 | 1017.6 |
| 20260902211050 | 72 | 175 | 1.7 | 7.0 | 0.00 | 0.00 | 0.00 | 73 | 1017.6 |
| 20260902210950 | 72 | 196 | 2.6 | 7.0 | 0.00 | 0.00 | 0.00 | 73 | 1017.5 |
| 20260902210800 | 72 | 193 | 3.5 | 8.7 | 0.00 | 0.00 | 0.00 | 72 | 1017.5 |
| 20260902210715 | 72 | 223 | 4.3 | 8.7 | 0.00 | 0.00 | 0.00 | 72 | 1017.6 |
| 20260902210527 | 72 | 156 | 4.3 | 8.7 | 0.00 | 0.00 | 0.00 | 72 | 1017.6 |
| 20260902210440 | 72 | 171 | 4.3 | 8.7 | 0.00 | 0.00 | 0.00 | 72 | 1017.6 |
| 20260902210312 | 72 | 197 | 3.5 | 8.7 | 0.00 | 0.00 | 0.00 | 72 | 1017.6 |
| 20260902210233 | 72 | 244 | 4.3 | 8.7 | 0.00 | 0.00 | 0.00 | 73 | 1017.6 |
| 20260902210037 | 72 | 197 | 4.3 | 8.7 | 0.00 | 0.00 | 0.00 | 73 | 1017.6 |
| 20260902210000 | 72 | 184 | 3.5 | 7.0 | 0.00 | 0.00 | 0.00 | 73 | 1017.6 |
| 20260902205848 | 72 | 184 | 3.5 | 6.1 | 0.00 | 0.00 | 0.00 | 73 | 1017.6 |
| 20260902205729 | 73 | 155 | 4.3 | 6.1 | 0.00 | 0.00 | 0.00 | 72 | 1017.6 |
| 20260902205636 | 73 | 205 | 2.6 | 7.0 | 0.00 | 0.00 | 0.00 | 72 | 1017.5 |
| 20260902205557 | 73 | 205 | 2.6 | 7.0 | 0.00 | 0.00 | 0.00 | 74 | 1017.4 |
| 20260902205520 | 73 | 182 | 0.9 | 7.0 | 0.00 | 0.00 | 0.00 | 74 | 1017.3 |
| 20260902205405 | 72 | 138 | 0.9 | 7.0 | 0.00 | 0.00 | 0.00 | 74 | 1017.3 |
| 20260902205326 | 73 | 138 | 1.7 | 7.0 | 0.00 | 0.00 | 0.00 | 74 | 1017.3 |
| 20260902205157 | 72 | 169 | 2.6 | 7.0 | 0.00 | 0.00 | 0.00 | 74 | 1017.3 |
| 20260902205051 | 72 | 160 | 2.6 | 7.0 | 0.00 | 0.00 | 0.00 | 73 | 1017.3 |
| 20260902204921 | 72 | 132 | 4.3 | 7.0 | 0.00 | 0.00 | 0.00 | 74 | 1017.3 |
| 20260902204843 | 72 | 169 | 5.2 | 7.0 | 0.00 | 0.00 | 0.00 | 73 | 1017.3 |
| 20260902204714 | 72 | 162 | 5.2 | 7.0 | 0.00 | 0.00 | 0.00 | 73 | 1017.1 |
| 20260902204633 | 72 | 190 | 4.3 | 7.0 | 0.00 | 0.00 | 0.00 | 73 | 1017.1 |
| 20260902204444 | 72 | 170 | 4.3 | 7.0 | 0.00 | 0.00 | 0.00 | 73 | 1017.1 |
| 20260902204341 | 72 | 131 | 3.5 | 6.1 | 0.00 | 0.00 | 0.00 | 73 | 1017.2 |
| 20260902204224 | 72 | 173 | 3.5 | 6.1 | 0.00 | 0.00 | 0.00 | 73 | 1017.2 |
| 20260902204127 | 72 | 179 | 3.5 | 10.4 | 0.00 | 0.00 | 0.00 | 73 | 1017.3 |
| 20260902204053 | 72 | 181 | 3.5 | 10.4 | 0.00 | 0.00 | 0.00 | 73 | 1017.3 |
| 20260902204015 | 72 | 178 | 3.5 | 10.4 | 0.00 | 0.00 | 0.00 | 73 | 1017.3 |
| 20260902203937 | 72 | 153 | 2.6 | 10.4 | 0.00 | 0.00 | 0.00 | 73 | 1017.3 |
| 20260902203725 | 72 | 166 | 1.7 | 10.4 | 0.00 | 0.00 | 0.00 | 74 | 1017.4 |
| 20260902203649 | 72 | 142 | 1.7 | 10.4 | 0.00 | 0.00 | 0.00 | 73 | 1017.5 |
| 20260902203553 | 72 | 230 | 1.7 | 10.4 | 0.00 | 0.00 | 0.00 | 73 | 1017.5 |
| 20260902203514 | 72 | 185 | 2.6 | 10.4 | 0.00 | 0.00 | 0.00 | 73 | 1017.5 |
| 20260902203346 | 72 | 163 | 3.5 | 10.4 | 0.00 | 0.00 | 0.00 | 72 | 1017.5 |
| 20260902203259 | 72 | 184 | 2.6 | 6.1 | 0.00 | 0.00 | 0.00 | 72 | 1017.6 |
| 20260902203130 | 72 | 157 | 2.6 | 7.0 | 0.00 | 0.00 | 0.00 | 73 | 1017.6 |
| 20260902203031 | 72 | 126 | 1.7 | 8.7 | 0.00 | 0.00 | 0.00 | 73 | 1017.6 |
| 20260902202835 | 72 | 173 | 2.6 | 8.7 | 0.00 | 0.00 | 0.00 | 72 | 1017.6 |
| 20260902202758 | 72 | 134 | 3.5 | 8.7 | 0.00 | 0.00 | 0.00 | 72 | 1017.7 |
| 20260902202627 | 73 | 131 | 2.6 | 8.7 | 0.00 | 0.00 | 0.00 | 72 | 1017.7 |
| 20260902202542 | 73 | 188 | 3.5 | 9.6 | 0.00 | 0.00 | 0.00 | 72 | 1017.7 |
| 20260902202413 | 73 | 180 | 6.1 | 9.6 | 0.00 | 0.00 | 0.00 | 71 | 1017.6 |
| 20260902202315 | 73 | 163 | 5.2 | 9.6 | 0.00 | 0.00 | 0.00 | 72 | 1017.7 |
| 20260902202216 | 73 | 154 | 5.2 | 9.6 | 0.00 | 0.00 | 0.00 | 72 | 1017.6 |
| 20260902202121 | 73 | 182 | 4.3 | 9.6 | 0.00 | 0.00 | 0.00 | 72 | 1017.7 |
| 20260902202041 | 73 | 151 | 4.3 | 9.6 | 0.00 | 0.00 | 0.00 | 72 | 1017.7 |
| 20260902201911 | 73 | 184 | 3.5 | 11.3 | 0.00 | 0.00 | 0.00 | 73 | 1017.8 |
| 20260902201825 | 73 | 165 | 5.2 | 11.3 | 0.00 | 0.00 | 0.00 | 72 | 1017.8 |
| 20260902201656 | 73 | 155 | 6.1 | 11.3 | 0.00 | 0.00 | 0.00 | 71 | 1017.9 |
| 20260902201618 | 72 | 122 | 2.6 | 11.3 | 0.00 | 0.00 | 0.00 | 73 | 1017.9 |
| 20260902201446 | 72 | 198 | 2.6 | 11.3 | 0.00 | 0.00 | 0.00 | 73 | 1017.9 |
| 20260902201348 | 72 | 202 | 3.5 | 11.3 | 0.00 | 0.00 | 0.00 | 72 | 1017.9 |
| 20260902201218 | 72 | 210 | 6.1 | 11.3 | 0.00 | 0.00 | 0.00 | 71 | 1017.9 |
| 20260902201113 | 72 | 208 | 4.3 | 11.3 | 0.00 | 0.00 | 0.00 | 72 | 1017.9 |
| 20260902200843 | 72 | 168 | 5.2 | 9.6 | 0.00 | 0.00 | 0.00 | 71 | 1017.9 |
| 20260902200738 | 72 | 154 | 5.2 | 9.6 | 0.00 | 0.00 | 0.00 | 72 | 1017.9 |
| 20260902200624 | 72 | 142 | 3.5 | 8.7 | 0.00 | 0.00 | 0.00 | 72 | 1017.9 |
| 20260902200556 | 72 | 189 | 3.5 | 13.0 | 0.00 | 0.00 | 0.00 | 72 | 1017.9 |
| 20260902200519 | 72 | 196 | 3.5 | 13.0 | 0.00 | 0.00 | 0.00 | 72 | 1017.9 |
| 20260902200327 | 72 | 170 | 3.5 | 13.0 | 0.00 | 0.00 | 0.00 | 72 | 1017.9 |
| 20260902200241 | 72 | 263 | 5.2 | 13.0 | 0.00 | 0.00 | 0.00 | 72 | 1017.9 |
| 20260902200110 | 72 | 168 | 3.5 | 13.0 | 0.00 | 0.00 | 0.00 | 72 | 1017.9 |
| 20260902200012 | 72 | 190 | 4.3 | 12.2 | 0.00 | 0.00 | 0.00 | 72 | 1017.9 |
| 20260902195817 | 72 | 223 | 7.0 | 12.2 | 0.00 | 0.00 | 0.00 | 70 | 1017.9 |
| 20260902195742 | 72 | 192 | 7.0 | 13.0 | 0.00 | 0.00 | 0.00 | 72 | 1018.0 |
| 20260902195614 | 72 | 202 | 7.0 | 12.2 | 0.00 | 0.00 | 0.00 | 71 | 1018.0 |
| 20260902195535 | 72 | 150 | 7.0 | 12.2 | 0.00 | 0.00 | 0.00 | 71 | 1018.0 |
| 20260902195407 | 72 | 190 | 5.2 | 12.2 | 0.00 | 0.00 | 0.00 | 71 | 1018.1 |
| 20260902195225 | 72 | 123 | 7.0 | 12.2 | 0.00 | 0.00 | 0.00 | 70 | 1018.1 |
| 20260902195131 | 72 | 202 | 7.8 | 12.2 | 0.00 | 0.00 | 0.00 | 70 | 1018.1 |
| 20260902195032 | 72 | 180 | 5.2 | 11.3 | 0.00 | 0.00 | 0.00 | 71 | 1018.1 |
| 20260902194948 | 72 | 180 | 4.3 | 11.3 | 0.00 | 0.00 | 0.00 | 72 | 1018.1 |
| 20260902194909 | 72 | 164 | 4.3 | 11.3 | 0.00 | 0.00 | 0.00 | 71 | 1018.2 |
| 20260902194832 | 72 | 99 | 3.5 | 8.7 | 0.00 | 0.00 | 0.00 | 71 | 1018.2 |
| 20260902194634 | 72 | 140 | 3.5 | 8.7 | 0.00 | 0.00 | 0.00 | 72 | 1018.1 |
| 20260902194557 | 72 | 167 | 4.3 | 8.7 | 0.00 | 0.00 | 0.00 | 71 | 1018.1 |
| 20260902194503 | 72 | 168 | 3.5 | 8.7 | 0.00 | 0.00 | 0.00 | 71 | 1018.0 |
| 20260902194425 | 72 | 200 | 2.6 | 8.7 | 0.00 | 0.00 | 0.00 | 71 | 1018.0 |
| 20260902194213 | 73 | 161 | 3.5 | 8.7 | 0.00 | 0.00 | 0.00 | 71 | 1018.0 |
| 20260902194128 | 73 | 163 | 5.2 | 8.7 | 0.00 | 0.00 | 0.00 | 70 | 1018.0 |
| 20260902194031 | 73 | 157 | 4.3 | 9.6 | 0.00 | 0.00 | 0.00 | 70 | 1018.0 |
| 20260902193934 | 73 | 145 | 3.5 | 8.7 | 0.00 | 0.00 | 0.00 | 71 | 1017.9 |
| 20260902193831 | 73 | 172 | 3.5 | 8.7 | 0.00 | 0.00 | 0.00 | 71 | 1018.0 |
| 20260902193734 | 73 | 169 | 2.6 | 12.2 | 0.00 | 0.00 | 0.00 | 71 | 1018.0 |
| 20260902193641 | 72 | 192 | 4.3 | 12.2 | 0.00 | 0.00 | 0.00 | 71 | 1018.0 |
| 20260902193556 | 72 | 128 | 4.3 | 12.2 | 0.00 | 0.00 | 0.00 | 71 | 1018.1 |
| 20260902193518 | 72 | 130 | 5.2 | 12.2 | 0.00 | 0.00 | 0.00 | 71 | 1018.1 |
| 20260902193323 | 72 | 181 | 1.7 | 12.2 | 0.00 | 0.00 | 0.00 | 72 | 1018.1 |
| 20260902193225 | 72 | 147 | 1.7 | 12.2 | 0.00 | 0.00 | 0.00 | 71 | 1018.2 |
| 20260902193129 | 72 | 146 | 4.3 | 12.2 | 0.00 | 0.00 | 0.00 | 72 | 1018.2 |
| 20260902193051 | 72 | 169 | 6.1 | 12.2 | 0.00 | 0.00 | 0.00 | 71 | 1018.2 |
| 20260902192922 | 72 | 156 | 2.6 | 12.2 | 0.00 | 0.00 | 0.00 | 71 | 1018.2 |
| 20260902192816 | 72 | 136 | 2.6 | 12.2 | 0.00 | 0.00 | 0.00 | 72 | 1018.3 |
| 20260902192645 | 72 | 207 | 3.5 | 12.2 | 0.00 | 0.00 | 0.00 | 70 | 1018.2 |
| 20260902192548 | 73 | 163 | 3.5 | 12.2 | 0.00 | 0.00 | 0.00 | 70 | 1018.2 |
| 20260902192514 | 73 | 184 | 3.5 | 12.2 | 0.00 | 0.00 | 0.00 | 70 | 1018.2 |
| 20260902192330 | 73 | 237 | 7.0 | 12.2 | 0.00 | 0.00 | 0.00 | 69 | 1018.3 |
| 20260902192251 | 73 | 219 | 7.0 | 12.2 | 0.00 | 0.00 | 0.00 | 69 | 1018.3 |
| 20260902192154 | 73 | 205 | 4.3 | 13.9 | 0.00 | 0.00 | 0.00 | 69 | 1018.3 |
| 20260902192055 | 73 | 176 | 4.3 | 13.9 | 0.00 | 0.00 | 0.00 | 70 | 1018.3 |
| 20260902192017 | 73 | 191 | 3.5 | 13.9 | 0.00 | 0.00 | 0.00 | 70 | 1018.2 |
| 20260902191921 | 73 | 202 | 3.5 | 13.9 | 0.00 | 0.00 | 0.00 | 70 | 1018.3 |
| 20260902191843 | 73 | 178 | 4.3 | 13.9 | 0.00 | 0.00 | 0.00 | 70 | 1018.3 |
| 20260902191625 | 73 | 175 | 7.0 | 13.9 | 0.00 | 0.00 | 0.00 | 69 | 1018.3 |
| 20260902191528 | 73 | 185 | 7.0 | 13.9 | 0.00 | 0.00 | 0.00 | 69 | 1018.3 |
| 20260902191435 | 73 | 159 | 6.1 | 14.8 | 0.00 | 0.00 | 0.00 | 69 | 1018.3 |
| 20260902191335 | 73 | 237 | 5.2 | 10.4 | 0.00 | 0.00 | 0.00 | 69 | 1018.3 |
| 20260902191259 | 73 | 200 | 4.3 | 10.4 | 0.00 | 0.00 | 0.00 | 69 | 1018.2 |
| 20260902191201 | 74 | 214 | 5.2 | 10.4 | 0.00 | 0.00 | 0.00 | 69 | 1018.2 |
| 20260902191043 | 74 | 165 | 6.1 | 10.4 | 0.00 | 0.00 | 0.00 | 67 | 1018.2 |
| 20260902190945 | 74 | 175 | 6.1 | 13.0 | 0.00 | 0.00 | 0.00 | 68 | 1018.1 |
| 20260902190825 | 74 | 177 | 6.1 | 9.6 | 0.00 | 0.00 | 0.00 | 68 | 1018.1 |
| 20260902190728 | 74 | 200 | 7.0 | 9.6 | 0.00 | 0.00 | 0.00 | 68 | 1018.1 |
| 20260902190650 | 74 | 145 | 7.0 | 9.6 | 0.00 | 0.00 | 0.00 | 68 | 1018.0 |
| 20260902190612 | 74 | 123 | 6.1 | 10.4 | 0.00 | 0.00 | 0.00 | 68 | 1018.0 |
| 20260902190337 | 74 | 136 | 7.0 | 9.6 | 0.00 | 0.00 | 0.00 | 67 | 1018.0 |
| 20260902190258 | 74 | 105 | 7.8 | 10.4 | 0.00 | 0.00 | 0.00 | 67 | 1018.0 |
| 20260902190142 | 75 | 138 | 6.1 | 13.9 | 0.00 | 0.00 | 0.00 | 67 | 1018.1 |
| 20260902190104 | 75 | 128 | 6.1 | 13.9 | 0.00 | 0.00 | 0.00 | 68 | 1018.0 |
| 20260902185937 | 75 | 230 | 6.1 | 13.9 | 0.00 | 0.00 | 0.00 | 67 | 1018.1 |
| 20260902185840 | 75 | 190 | 5.2 | 13.9 | 0.00 | 0.00 | 0.00 | 68 | 1018.0 |
| 20260902185724 | 75 | 178 | 5.2 | 13.9 | 0.00 | 0.00 | 0.00 | 68 | 1018.0 |
| 20260902185645 | 75 | 197 | 6.1 | 13.9 | 0.00 | 0.00 | 0.00 | 68 | 1018.0 |
| 20260902185507 | 75 | 142 | 7.0 | 13.9 | 0.00 | 0.00 | 0.00 | 67 | 1018.0 |
| 20260902185434 | 75 | 155 | 7.0 | 13.9 | 0.00 | 0.00 | 0.00 | 66 | 1018.0 |
| 20260902185244 | 75 | 194 | 6.1 | 10.4 | 0.00 | 0.00 | 0.00 | 68 | 1018.0 |
| 20260902185138 | 75 | 171 | 7.0 | 9.6 | 0.00 | 0.00 | 0.00 | 68 | 1018.0 |
| 20260902185023 | 74 | 137 | 6.1 | 10.4 | 0.00 | 0.00 | 0.00 | 69 | 1018.0 |
| 20260902184945 | 74 | 142 | 5.2 | 9.6 | 0.00 | 0.00 | 0.00 | 69 | 1018.0 |
| 20260902184906 | 74 | 182 | 6.1 | 9.6 | 0.00 | 0.00 | 0.00 | 70 | 1018.0 |
| 20260902184812 | 74 | 167 | 5.2 | 9.6 | 0.00 | 0.00 | 0.00 | 70 | 1018.1 |
| 20260902184733 | 74 | 178 | 6.1 | 10.4 | 0.00 | 0.00 | 0.00 | 69 | 1018.1 |
| 20260902184605 | 74 | 145 | 6.1 | 9.6 | 0.00 | 0.00 | 0.00 | 70 | 1018.0 |
| 20260902184520 | 73 | 176 | 6.1 | 9.6 | 0.00 | 0.00 | 0.00 | 70 | 1018.1 |
| 20260902184354 | 73 | 178 | 4.3 | 9.6 | 0.00 | 0.00 | 0.00 | 69 | 1018.1 |
| 20260902184254 | 73 | 155 | 5.2 | 9.6 | 0.00 | 0.00 | 0.00 | 69 | 1018.1 |
| 20260902184140 | 73 | 155 | 6.1 | 10.4 | 0.00 | 0.00 | 0.00 | 70 | 1018.2 |
| 20260902184101 | 73 | 196 | 6.1 | 10.4 | 0.00 | 0.00 | 0.00 | 70 | 1018.1 |
| 20260902184002 | 73 | 197 | 6.1 | 11.3 | 0.00 | 0.00 | 0.00 | 71 | 1018.2 |
| 20260902183906 | 73 | 158 | 6.1 | 9.6 | 0.00 | 0.00 | 0.00 | 71 | 1018.3 |
| 20260902183827 | 73 | 144 | 6.1 | 9.6 | 0.00 | 0.00 | 0.00 | 70 | 1018.3 |
| 20260902183630 | 72 | 204 | 4.3 | 9.6 | 0.00 | 0.00 | 0.00 | 71 | 1018.4 |
| 20260902183531 | 72 | 160 | 5.2 | 9.6 | 0.00 | 0.00 | 0.00 | 71 | 1018.4 |
| 20260902183433 | 72 | 228 | 6.1 | 9.6 | 0.00 | 0.00 | 0.00 | 71 | 1018.5 |
| 20260902183400 | 72 | 221 | 6.1 | 9.6 | 0.00 | 0.00 | 0.00 | 71 | 1018.5 |
| 20260902183224 | 72 | 173 | 5.2 | 9.6 | 0.00 | 0.00 | 0.00 | 72 | 1018.5 |
| 20260902183146 | 72 | 143 | 4.3 | 8.7 | 0.00 | 0.00 | 0.00 | 72 | 1018.6 |
| 20260902183016 | 72 | 168 | 2.6 | 8.7 | 0.00 | 0.00 | 0.00 | 72 | 1018.6 |
| 20260902182931 | 72 | 207 | 3.5 | 9.6 | 0.00 | 0.00 | 0.00 | 72 | 1018.6 |
| 20260902182741 | 72 | 149 | 3.5 | 9.6 | 0.00 | 0.00 | 0.00 | 71 | 1018.7 |
| 20260902182657 | 72 | 202 | 5.2 | 9.6 | 0.00 | 0.00 | 0.00 | 71 | 1018.7 |
| 20260902182505 | 72 | 180 | 4.3 | 9.6 | 0.00 | 0.00 | 0.00 | 71 | 1018.8 |
| 20260902182426 | 72 | 196 | 4.3 | 9.6 | 0.00 | 0.00 | 0.00 | 71 | 1018.8 |
| 20260902182246 | 73 | 187 | 5.2 | 9.6 | 0.00 | 0.00 | 0.00 | 71 | 1018.7 |
| 20260902182123 | 73 | 190 | 4.3 | 9.6 | 0.00 | 0.00 | 0.00 | 70 | 1018.7 |
| 20260902182044 | 73 | 215 | 3.5 | 11.3 | 0.00 | 0.00 | 0.00 | 70 | 1018.7 |
| 20260902181937 | 73 | 150 | 3.5 | 9.6 | 0.00 | 0.00 | 0.00 | 70 | 1018.7 |
| 20260902181857 | 73 | 163 | 4.3 | 9.6 | 0.00 | 0.00 | 0.00 | 70 | 1018.7 |
| 20260902181740 | 73 | 178 | 4.3 | 9.6 | 0.00 | 0.00 | 0.00 | 70 | 1018.6 |
| 20260902181701 | 73 | 154 | 4.3 | 9.6 | 0.00 | 0.00 | 0.00 | 70 | 1018.6 |
| 20260902181623 | 73 | 219 | 4.3 | 9.6 | 0.00 | 0.00 | 0.00 | 70 | 1018.6 |
| 20260902181507 | 73 | 200 | 4.3 | 9.6 | 0.00 | 0.00 | 0.00 | 70 | 1018.6 |
| 20260902181429 | 73 | 155 | 5.2 | 9.6 | 0.00 | 0.00 | 0.00 | 69 | 1018.6 |
| 20260902181258 | 73 | 217 | 7.0 | 9.6 | 0.00 | 0.00 | 0.00 | 69 | 1018.6 |
| 20260902181213 | 74 | 168 | 6.1 | 10.4 | 0.00 | 0.00 | 0.00 | 69 | 1018.6 |
| 20260902181021 | 74 | 234 | 4.3 | 7.8 | 0.00 | 0.00 | 0.00 | 69 | 1018.5 |
| 20260902180925 | 74 | 153 | 4.3 | 7.8 | 0.00 | 0.00 | 0.00 | 69 | 1018.5 |
| 20260902180756 | 74 | 185 | 5.2 | 7.8 | 0.00 | 0.00 | 0.00 | 71 | 1018.5 |
| 20260902180630 | 74 | 209 | 4.3 | 7.0 | 0.00 | 0.00 | 0.00 | 70 | 1018.4 |
| 20260902180535 | 74 | 175 | 3.5 | 8.7 | 0.00 | 0.00 | 0.00 | 70 | 1018.5 |
| 20260902180458 | 74 | 202 | 3.5 | 8.7 | 0.00 | 0.00 | 0.00 | 70 | 1018.5 |
| 20260902180237 | 74 | 141 | 2.6 | 8.7 | 0.00 | 0.00 | 0.00 | 70 | 1018.5 |
| 20260902180130 | 74 | 159 | 2.6 | 8.7 | 0.00 | 0.00 | 0.00 | 70 | 1018.5 |
| 20260902175940 | 74 | 135 | 4.3 | 8.7 | 0.00 | 0.00 | 0.00 | 70 | 1018.6 |
| 20260902175834 | 74 | 167 | 5.2 | 8.7 | 0.00 | 0.00 | 0.00 | 68 | 1018.6 |
| 20260902175723 | 74 | 169 | 6.1 | 8.7 | 0.00 | 0.00 | 0.00 | 68 | 1018.6 |
| 20260902175645 | 74 | 144 | 6.1 | 8.7 | 0.00 | 0.00 | 0.00 | 68 | 1018.6 |
| 20260902175618 | 74 | 176 | 5.2 | 8.7 | 0.00 | 0.00 | 0.00 | 67 | 1018.6 |
| 20260902175442 | 75 | 161 | 4.3 | 7.0 | 0.00 | 0.00 | 0.00 | 69 | 1018.6 |
| 20260902175344 | 74 | 136 | 3.5 | 7.8 | 0.00 | 0.00 | 0.00 | 69 | 1018.6 |
| 20260902175228 | 74 | 151 | 1.7 | 7.8 | 0.00 | 0.00 | 0.00 | 71 | 1018.6 |
| 20260902175148 | 74 | 188 | 1.7 | 7.8 | 0.00 | 0.00 | 0.00 | 71 | 1018.5 |
| 20260902175021 | 74 | 160 | 3.5 | 7.8 | 0.00 | 0.00 | 0.00 | 69 | 1018.5 |
| 20260902174934 | 74 | 196 | 4.3 | 7.8 | 0.00 | 0.00 | 0.00 | 69 | 1018.5 |
| 20260902174804 | 74 | 197 | 4.3 | 7.8 | 0.00 | 0.00 | 0.00 | 68 | 1018.5 |
| 20260902174718 | 74 | 188 | 3.5 | 7.8 | 0.00 | 0.00 | 0.00 | 68 | 1018.5 |
| 20260902174519 | 74 | 139 | 3.5 | 7.8 | 0.00 | 0.00 | 0.00 | 67 | 1018.6 |
| 20260902174426 | 74 | 185 | 3.5 | 7.8 | 0.00 | 0.00 | 0.00 | 69 | 1018.5 |
| 20260902174347 | 74 | 163 | 3.5 | 7.8 | 0.00 | 0.00 | 0.00 | 70 | 1018.5 |
| 20260902174252 | 74 | 126 | 3.5 | 8.7 | 0.00 | 0.00 | 0.00 | 68 | 1018.6 |
| 20260902174214 | 74 | 198 | 4.3 | 8.7 | 0.00 | 0.00 | 0.00 | 68 | 1018.6 |
| 20260902174027 | 74 | 161 | 4.3 | 8.7 | 0.00 | 0.00 | 0.00 | 68 | 1018.5 |
| 20260902173930 | 74 | 178 | 4.3 | 8.7 | 0.00 | 0.00 | 0.00 | 68 | 1018.6 |
| 20260902173831 | 75 | 211 | 4.3 | 8.7 | 0.00 | 0.00 | 0.00 | 68 | 1018.6 |
| 20260902173752 | 75 | 220 | 3.5 | 8.7 | 0.00 | 0.00 | 0.00 | 69 | 1018.6 |
| 20260902173536 | 75 | 148 | 5.2 | 8.7 | 0.00 | 0.00 | 0.00 | 68 | 1018.6 |
| 20260902173457 | 75 | 182 | 5.2 | 8.7 | 0.00 | 0.00 | 0.00 | 68 | 1018.6 |
| 20260902173400 | 75 | 193 | 6.1 | 8.7 | 0.00 | 0.00 | 0.00 | 66 | 1018.6 |
| 20260902173323 | 75 | 175 | 5.2 | 9.6 | 0.00 | 0.00 | 0.00 | 69 | 1018.6 |
| 20260902173135 | 74 | 167 | 4.3 | 9.6 | 0.00 | 0.00 | 0.00 | 69 | 1018.6 |
| 20260902173027 | 74 | 209 | 4.3 | 9.6 | 0.00 | 0.00 | 0.00 | 69 | 1018.6 |
| 20260902172930 | 74 | 172 | 5.2 | 9.6 | 0.00 | 0.00 | 0.00 | 69 | 1018.6 |
| 20260902172835 | 74 | 200 | 5.2 | 9.6 | 0.00 | 0.00 | 0.00 | 69 | 1018.5 |
| 20260902172758 | 74 | 129 | 5.2 | 9.6 | 0.00 | 0.00 | 0.00 | 69 | 1018.5 |
| 20260902172701 | 74 | 180 | 4.3 | 9.6 | 0.00 | 0.00 | 0.00 | 69 | 1018.5 |
| 20260902172622 | 74 | 154 | 5.2 | 9.6 | 0.00 | 0.00 | 0.00 | 71 | 1018.5 |
| 20260902172425 | 74 | 188 | 5.2 | 9.6 | 0.00 | 0.00 | 0.00 | 69 | 1018.4 |
| 20260902172327 | 74 | 152 | 4.3 | 7.8 | 0.00 | 0.00 | 0.00 | 70 | 1018.4 |
| 20260902172230 | 74 | 188 | 3.5 | 8.7 | 0.00 | 0.00 | 0.00 | 71 | 1018.4 |
| 20260902172151 | 74 | 241 | 5.2 | 8.7 | 0.00 | 0.00 | 0.00 | 71 | 1018.5 |
| 20260902172001 | 74 | 193 | 5.2 | 8.7 | 0.00 | 0.00 | 0.00 | 69 | 1018.5 |
| 20260902171916 | 74 | 156 | 5.2 | 8.7 | 0.00 | 0.00 | 0.00 | 70 | 1018.4 |
| 20260902171751 | 73 | 197 | 5.2 | 8.7 | 0.00 | 0.00 | 0.00 | 69 | 1018.5 |
| 20260902171712 | 73 | 129 | 4.3 | 8.7 | 0.00 | 0.00 | 0.00 | 71 | 1018.5 |
| 20260902171634 | 73 | 159 | 4.3 | 8.7 | 0.00 | 0.00 | 0.00 | 70 | 1018.5 |
| 20260902171517 | 73 | 145 | 5.2 | 8.7 | 0.00 | 0.00 | 0.00 | 69 | 1018.5 |
| 20260902171439 | 73 | 192 | 5.2 | 8.7 | 0.00 | 0.00 | 0.00 | 70 | 1018.5 |
| 20260902171259 | 73 | 199 | 3.5 | 9.6 | 0.00 | 0.00 | 0.00 | 70 | 1018.6 |
| 20260902171101 | 73 | 176 | 4.3 | 9.6 | 0.00 | 0.00 | 0.00 | 69 | 1018.7 |
| 20260902170941 | 73 | 147 | 3.5 | 9.6 | 0.00 | 0.00 | 0.00 | 71 | 1018.7 |
| 20260902170835 | 73 | 233 | 3.5 | 9.6 | 0.00 | 0.00 | 0.00 | 70 | 1018.8 |
| 20260902170757 | 73 | 198 | 3.5 | 9.6 | 0.00 | 0.00 | 0.00 | 69 | 1018.8 |
| 20260902170626 | 73 | 164 | 6.1 | 9.6 | 0.00 | 0.00 | 0.00 | 68 | 1018.8 |
| 20260902170542 | 73 | 180 | 7.0 | 9.6 | 0.00 | 0.00 | 0.00 | 68 | 1018.8 |
| 20260902170413 | 73 | 182 | 7.0 | 12.2 | 0.00 | 0.00 | 0.00 | 68 | 1018.8 |
| 20260902170335 | 74 | 138 | 7.0 | 12.2 | 0.00 | 0.00 | 0.00 | 67 | 1018.8 |
| 20260902170053 | 74 | 177 | 4.3 | 8.7 | 0.00 | 0.00 | 0.00 | 67 | 1018.7 |
| 20260902165946 | 74 | 188 | 4.3 | 8.7 | 0.00 | 0.00 | 0.00 | 69 | 1018.8 |
| 20260902165735 | 74 | 180 | 5.2 | 10.4 | 0.00 | 0.00 | 0.00 | 68 | 1018.8 |
| 20260902165632 | 74 | 146 | 6.1 | 10.4 | 0.00 | 0.00 | 0.00 | 69 | 1018.8 |
| 20260902165553 | 74 | 128 | 6.1 | 10.4 | 0.00 | 0.00 | 0.00 | 68 | 1018.7 |
| 20260902165441 | 74 | 194 | 6.1 | 10.4 | 0.00 | 0.00 | 0.00 | 67 | 1018.8 |
| 20260902165401 | 74 | 131 | 7.0 | 10.4 | 0.00 | 0.00 | 0.00 | 67 | 1018.7 |
| 20260902165315 | 74 | 205 | 7.0 | 10.4 | 0.00 | 0.00 | 0.00 | 68 | 1018.7 |
| 20260902165214 | 74 | 168 | 7.0 | 8.7 | 0.00 | 0.00 | 0.00 | 67 | 1018.6 |
| 20260902165116 | 74 | 193 | 7.8 | 9.6 | 0.00 | 0.00 | 0.00 | 67 | 1018.6 |
| 20260902164940 | 74 | 207 | 5.2 | 10.4 | 0.00 | 0.00 | 0.00 | 69 | 1018.6 |
| 20260902164841 | 74 | 176 | 5.2 | 10.4 | 0.00 | 0.00 | 0.00 | 68 | 1018.5 |
| 20260902164726 | 74 | 138 | 6.1 | 11.3 | 0.00 | 0.00 | 0.00 | 69 | 1018.6 |
| 20260902164648 | 74 | 158 | 7.0 | 12.2 | 0.00 | 0.00 | 0.00 | 68 | 1018.6 |
| 20260902164530 | 74 | 136 | 7.0 | 12.2 | 0.00 | 0.00 | 0.00 | 68 | 1018.5 |
| 20260902164437 | 74 | 135 | 6.1 | 12.2 | 0.00 | 0.00 | 0.00 | 67 | 1018.6 |
| 20260902164358 | 74 | 179 | 5.2 | 12.2 | 0.00 | 0.00 | 0.00 | 68 | 1018.6 |
| 20260902164301 | 74 | 247 | 4.3 | 12.2 | 0.00 | 0.00 | 0.00 | 68 | 1018.6 |
| 20260902164200 | 74 | 231 | 4.3 | 12.2 | 0.00 | 0.00 | 0.00 | 70 | 1018.7 |
| 20260902164120 | 74 | 114 | 6.1 | 12.2 | 0.00 | 0.00 | 0.00 | 68 | 1018.7 |
| 20260902163923 | 73 | 135 | 6.1 | 12.2 | 0.00 | 0.00 | 0.00 | 68 | 1018.8 |
| 20260902163838 | 73 | 187 | 6.1 | 9.6 | 0.00 | 0.00 | 0.00 | 68 | 1018.8 |
| 20260902163708 | 73 | 188 | 7.0 | 9.6 | 0.00 | 0.00 | 0.00 | 67 | 1018.8 |
| 20260902163630 | 73 | 197 | 6.1 | 9.6 | 0.00 | 0.00 | 0.00 | 67 | 1018.8 |
| 20260902163435 | 74 | 186 | 6.1 | 9.6 | 0.00 | 0.00 | 0.00 | 69 | 1018.9 |
| 20260902163400 | 74 | 217 | 5.2 | 9.6 | 0.00 | 0.00 | 0.00 | 69 | 1018.9 |
| 20260902163303 | 74 | 204 | 3.5 | 9.6 | 0.00 | 0.00 | 0.00 | 69 | 1018.9 |
| 20260902163202 | 73 | 166 | 2.6 | 13.9 | 0.00 | 0.00 | 0.00 | 71 | 1018.9 |
| 20260902163011 | 73 | 221 | 4.3 | 13.9 | 0.00 | 0.00 | 0.00 | 69 | 1018.9 |
| 20260902162925 | 73 | 154 | 5.2 | 13.9 | 0.00 | 0.00 | 0.00 | 68 | 1018.9 |
| 20260902162755 | 73 | 138 | 6.1 | 13.9 | 0.00 | 0.00 | 0.00 | 69 | 1019.0 |
| 20260902162717 | 73 | 152 | 6.1 | 13.9 | 0.00 | 0.00 | 0.00 | 67 | 1019.0 |
| 20260902162546 | 73 | 113 | 6.1 | 13.9 | 0.00 | 0.00 | 0.00 | 68 | 1019.2 |
| 20260902162421 | 73 | 157 | 7.8 | 13.9 | 0.00 | 0.00 | 0.00 | 69 | 1019.1 |
| 20260902162334 | 74 | 180 | 7.8 | 13.9 | 0.00 | 0.00 | 0.00 | 67 | 1019.1 |
| 20260902162254 | 74 | 163 | 7.0 | 12.2 | 0.00 | 0.00 | 0.00 | 67 | 1019.1 |
| 20260902162218 | 74 | 176 | 6.1 | 12.2 | 0.00 | 0.00 | 0.00 | 67 | 1019.1 |
| 20260902162122 | 74 | 179 | 5.2 | 12.2 | 0.00 | 0.00 | 0.00 | 69 | 1019.1 |
| 20260902162044 | 74 | 152 | 5.2 | 12.2 | 0.00 | 0.00 | 0.00 | 67 | 1019.1 |
| 20260902161914 | 74 | 114 | 6.1 | 12.2 | 0.00 | 0.00 | 0.00 | 68 | 1019.1 |
| 20260902161828 | 74 | 126 | 6.1 | 12.2 | 0.00 | 0.00 | 0.00 | 68 | 1019.1 |
| 20260902161638 | 74 | 150 | 5.2 | 12.2 | 0.00 | 0.00 | 0.00 | 70 | 1019.1 |
| 20260902161531 | 74 | 140 | 3.5 | 10.4 | 0.00 | 0.00 | 0.00 | 71 | 1019.0 |
| 20260902161424 | 74 | 156 | 5.2 | 10.4 | 0.00 | 0.00 | 0.00 | 71 | 1019.0 |
| 20260902161346 | 74 | 175 | 6.1 | 10.4 | 0.00 | 0.00 | 0.00 | 69 | 1019.0 |
| 20260902161215 | 73 | 163 | 6.1 | 9.6 | 0.00 | 0.00 | 0.00 | 71 | 1019.0 |
| 20260902161133 | 73 | 136 | 6.1 | 9.6 | 0.00 | 0.00 | 0.00 | 70 | 1019.0 |
| 20260902160944 | 73 | 223 | 6.1 | 9.6 | 0.00 | 0.00 | 0.00 | 69 | 1019.1 |
| 20260902160838 | 73 | 160 | 6.1 | 9.6 | 0.00 | 0.00 | 0.00 | 72 | 1019.1 |
| 20260902160731 | 73 | 149 | 5.2 | 8.7 | 0.00 | 0.00 | 0.00 | 72 | 1019.1 |
| 20260902160653 | 73 | 191 | 3.5 | 8.7 | 0.00 | 0.00 | 0.00 | 71 | 1019.1 |
| 20260902160434 | 73 | 150 | 4.3 | 7.8 | 0.00 | 0.00 | 0.00 | 71 | 1019.2 |
| 20260902160335 | 73 | 152 | 4.3 | 7.8 | 0.00 | 0.00 | 0.00 | 72 | 1019.2 |
| 20260902160223 | 73 | 162 | 3.5 | 7.0 | 0.00 | 0.00 | 0.00 | 72 | 1019.2 |
| 20260902160145 | 73 | 157 | 3.5 | 7.0 | 0.00 | 0.00 | 0.00 | 73 | 1019.2 |
| 20260902160108 | 73 | 204 | 4.3 | 7.0 | 0.00 | 0.00 | 0.00 | 72 | 1019.2 |
| 20260902155951 | 73 | 160 | 3.5 | 7.0 | 0.00 | 0.00 | 0.00 | 71 | 1019.3 |
| 20260902155914 | 72 | 187 | 2.6 | 7.0 | 0.00 | 0.00 | 0.00 | 72 | 1019.4 |
| 20260902155744 | 72 | 238 | 3.5 | 7.0 | 0.00 | 0.00 | 0.00 | 74 | 1019.4 |
| 20260902155637 | 72 | 176 | 4.3 | 7.0 | 0.00 | 0.00 | 0.00 | 71 | 1019.4 |
| 20260902155506 | 72 | 217 | 4.3 | 8.7 | 0.00 | 0.00 | 0.00 | 73 | 1019.4 |
| 20260902155429 | 72 | 170 | 4.3 | 7.8 | 0.00 | 0.00 | 0.00 | 73 | 1019.4 |
| 20260902155231 | 72 | 159 | 3.5 | 9.6 | 0.00 | 0.00 | 0.00 | 73 | 1019.4 |
| 20260902155154 | 72 | 205 | 2.6 | 9.6 | 0.00 | 0.00 | 0.00 | 75 | 1019.4 |
| 20260902155042 | 72 | 159 | 3.5 | 9.6 | 0.00 | 0.00 | 0.00 | 72 | 1019.5 |
| 20260902154945 | 72 | 118 | 2.6 | 9.6 | 0.00 | 0.00 | 0.00 | 74 | 1019.5 |
| 20260902154827 | 72 | 172 | 2.6 | 9.6 | 0.00 | 0.00 | 0.00 | 74 | 1019.5 |
| 20260902154748 | 72 | 178 | 2.6 | 9.6 | 0.00 | 0.00 | 0.00 | 74 | 1019.5 |
| 20260902154709 | 72 | 259 | 2.6 | 9.6 | 0.00 | 0.00 | 0.00 | 74 | 1019.5 |
| 20260902154613 | 72 | 186 | 4.3 | 9.6 | 0.00 | 0.00 | 0.00 | 73 | 1019.5 |
| 20260902154536 | 72 | 158 | 6.1 | 9.6 | 0.00 | 0.00 | 0.00 | 73 | 1019.5 |
| 20260902154405 | 72 | 178 | 6.1 | 10.4 | 0.00 | 0.00 | 0.00 | 73 | 1019.5 |
| 20260902154321 | 72 | 164 | 5.2 | 9.6 | 0.00 | 0.00 | 0.00 | 73 | 1019.5 |
| 20260902154129 | 71 | 175 | 5.2 | 9.6 | 0.00 | 0.00 | 0.00 | 73 | 1019.5 |
| 20260902154043 | 71 | 164 | 4.3 | 9.6 | 0.00 | 0.00 | 0.00 | 74 | 1019.5 |
| 20260902153919 | 71 | 174 | 2.6 | 9.6 | 0.00 | 0.00 | 0.00 | 75 | 1019.5 |
| 20260902153840 | 71 | 178 | 4.3 | 9.6 | 0.00 | 0.00 | 0.00 | 73 | 1019.5 |
| 20260902153641 | 71 | 176 | 6.1 | 9.6 | 0.00 | 0.00 | 0.00 | 73 | 1019.5 |
| 20260902153602 | 71 | 123 | 6.1 | 9.6 | 0.00 | 0.00 | 0.00 | 72 | 1019.5 |
| 20260902153506 | 71 | 173 | 5.2 | 9.6 | 0.00 | 0.00 | 0.00 | 73 | 1019.5 |
| 20260902153427 | 71 | 145 | 5.2 | 9.6 | 0.00 | 0.00 | 0.00 | 74 | 1019.5 |
| 20260902153246 | 71 | 104 | 4.3 | 12.2 | 0.00 | 0.00 | 0.00 | 73 | 1019.5 |
| 20260902153146 | 71 | 154 | 4.3 | 12.2 | 0.00 | 0.00 | 0.00 | 73 | 1019.5 |
| 20260902153027 | 71 | 183 | 5.2 | 12.2 | 0.00 | 0.00 | 0.00 | 74 | 1019.5 |
| 20260902152949 | 71 | 172 | 4.3 | 12.2 | 0.00 | 0.00 | 0.00 | 74 | 1019.5 |
| 20260902152731 | 71 | 194 | 4.3 | 12.2 | 0.00 | 0.00 | 0.00 | 74 | 1019.6 |
| 20260902152636 | 71 | 173 | 5.2 | 12.2 | 0.00 | 0.00 | 0.00 | 75 | 1019.5 |
| 20260902152540 | 71 | 127 | 7.0 | 12.2 | 0.00 | 0.00 | 0.00 | 74 | 1019.6 |
| 20260902152501 | 71 | 134 | 7.0 | 12.2 | 0.00 | 0.00 | 0.00 | 75 | 1019.5 |
| 20260902152326 | 71 | 144 | 5.2 | 10.4 | 0.00 | 0.00 | 0.00 | 74 | 1019.5 |
| 20260902152246 | 71 | 203 | 5.2 | 10.4 | 0.00 | 0.00 | 0.00 | 74 | 1019.6 |
| 20260902152207 | 71 | 180 | 4.3 | 10.4 | 0.00 | 0.00 | 0.00 | 74 | 1019.5 |
| 20260902152112 | 71 | 178 | 5.2 | 10.4 | 0.00 | 0.00 | 0.00 | 74 | 1019.5 |
| 20260902152034 | 71 | 209 | 5.2 | 10.4 | 0.00 | 0.00 | 0.00 | 74 | 1019.5 |
| 20260902151903 | 71 | 182 | 4.3 | 7.8 | 0.00 | 0.00 | 0.00 | 76 | 1019.5 |
| 20260902151818 | 71 | 142 | 5.2 | 7.8 | 0.00 | 0.00 | 0.00 | 73 | 1019.5 |
| 20260902151647 | 70 | 138 | 4.3 | 7.8 | 0.00 | 0.00 | 0.00 | 75 | 1019.5 |
| 20260902151551 | 70 | 193 | 3.5 | 8.7 | 0.00 | 0.00 | 0.00 | 75 | 1019.5 |
| 20260902151512 | 70 | 162 | 3.5 | 8.7 | 0.00 | 0.00 | 0.00 | 75 | 1019.5 |
| 20260902151416 | 70 | 148 | 4.3 | 10.4 | 0.00 | 0.00 | 0.00 | 76 | 1019.4 |
| 20260902151316 | 70 | 149 | 5.2 | 10.4 | 0.00 | 0.00 | 0.00 | 75 | 1019.4 |
| 20260902151148 | 70 | 115 | 4.3 | 10.4 | 0.00 | 0.00 | 0.00 | 76 | 1019.4 |
| 20260902151023 | 70 | 162 | 3.5 | 10.4 | 0.00 | 0.00 | 0.00 | 75 | 1019.5 |
| 20260902150926 | 70 | 176 | 3.5 | 10.4 | 0.00 | 0.00 | 0.00 | 75 | 1019.5 |
| 20260902150859 | 70 | 115 | 4.3 | 10.4 | 0.00 | 0.00 | 0.00 | 75 | 1019.4 |
| 20260902150708 | 70 | 168 | 7.0 | 10.4 | 0.00 | 0.00 | 0.00 | 75 | 1019.5 |
| 20260902150624 | 70 | 215 | 7.0 | 12.2 | 0.00 | 0.00 | 0.00 | 75 | 1019.5 |
| 20260902150453 | 70 | 209 | 6.1 | 12.2 | 0.00 | 0.00 | 0.00 | 74 | 1019.5 |
| 20260902150420 | 70 | 173 | 6.1 | 12.2 | 0.00 | 0.00 | 0.00 | 74 | 1019.4 |
| 20260902150241 | 70 | 120 | 6.1 | 12.2 | 0.00 | 0.00 | 0.00 | 74 | 1019.4 |
| 20260902150204 | 70 | 159 | 7.8 | 12.2 | 0.00 | 0.00 | 0.00 | 74 | 1019.4 |
| 20260902150012 | 70 | 177 | 6.1 | 12.2 | 0.00 | 0.00 | 0.00 | 74 | 1019.4 |
| 20260902145906 | 70 | 196 | 6.1 | 12.2 | 0.00 | 0.00 | 0.00 | 75 | 1019.3 |
| 20260902145726 | 70 | 176 | 4.3 | 8.7 | 0.00 | 0.00 | 0.00 | 76 | 1019.5 |
| 20260902145627 | 70 | 148 | 5.2 | 8.7 | 0.00 | 0.00 | 0.00 | 76 | 1019.5 |
| 20260902145429 | 70 | 165 | 4.3 | 7.8 | 0.00 | 0.00 | 0.00 | 75 | 1019.6 |
| 20260902145351 | 70 | 127 | 4.3 | 7.8 | 0.00 | 0.00 | 0.00 | 76 | 1019.6 |
| 20260902145233 | 70 | 179 | 5.2 | 7.8 | 0.00 | 0.00 | 0.00 | 75 | 1019.6 |
| 20260902145157 | 70 | 159 | 5.2 | 7.8 | 0.00 | 0.00 | 0.00 | 75 | 1019.7 |
| 20260902145103 | 70 | 193 | 6.1 | 8.7 | 0.00 | 0.00 | 0.00 | 75 | 1019.7 |
| 20260902145025 | 70 | 141 | 5.2 | 8.7 | 0.00 | 0.00 | 0.00 | 76 | 1019.7 |
| 20260902144828 | 70 | 188 | 3.5 | 8.7 | 0.00 | 0.00 | 0.00 | 75 | 1019.7 |
| 20260902144729 | 70 | 147 | 4.3 | 8.7 | 0.00 | 0.00 | 0.00 | 76 | 1019.8 |
| 20260902144633 | 70 | 190 | 5.2 | 8.7 | 0.00 | 0.00 | 0.00 | 75 | 1019.8 |
| 20260902144556 | 70 | 185 | 5.2 | 8.7 | 0.00 | 0.00 | 0.00 | 75 | 1019.8 |
| 20260902144517 | 70 | 137 | 5.2 | 8.7 | 0.00 | 0.00 | 0.00 | 75 | 1019.9 |
| 20260902144421 | 70 | 167 | 6.1 | 8.7 | 0.00 | 0.00 | 0.00 | 75 | 1019.9 |
| 20260902144322 | 70 | 153 | 6.1 | 8.7 | 0.00 | 0.00 | 0.00 | 75 | 1019.9 |
| 20260902144136 | 70 | 163 | 5.2 | 7.8 | 0.00 | 0.00 | 0.00 | 75 | 1020.0 |
| 20260902144030 | 70 | 157 | 3.5 | 9.6 | 0.00 | 0.00 | 0.00 | 76 | 1019.9 |
| 20260902143951 | 70 | 165 | 2.6 | 9.6 | 0.00 | 0.00 | 0.00 | 76 | 1020.0 |
| 20260902143855 | 70 | 189 | 2.6 | 9.6 | 0.00 | 0.00 | 0.00 | 76 | 1020.0 |
| 20260902143818 | 70 | 156 | 2.6 | 9.6 | 0.00 | 0.00 | 0.00 | 76 | 1020.0 |
| 20260902143647 | 70 | 176 | 2.6 | 9.6 | 0.00 | 0.00 | 0.00 | 77 | 1020.0 |
| 20260902143602 | 69 | 176 | 4.3 | 9.6 | 0.00 | 0.00 | 0.00 | 77 | 1020.1 |
| 20260902143431 | 69 | 187 | 5.2 | 9.6 | 0.00 | 0.00 | 0.00 | 74 | 1020.0 |
| 20260902143332 | 69 | 182 | 6.1 | 9.6 | 0.00 | 0.00 | 0.00 | 74 | 1020.0 |
| 20260902143135 | 69 | 171 | 4.3 | 7.8 | 0.00 | 0.00 | 0.00 | 75 | 1020.0 |
| 20260902143054 | 69 | 169 | 4.3 | 7.8 | 0.00 | 0.00 | 0.00 | 75 | 1020.0 |
| 20260902142940 | 69 | 167 | 4.3 | 7.8 | 0.00 | 0.00 | 0.00 | 76 | 1020.0 |
| 20260902142902 | 69 | 167 | 4.3 | 7.8 | 0.00 | 0.00 | 0.00 | 76 | 1020.0 |
| 20260902142804 | 69 | 223 | 3.5 | 7.8 | 0.00 | 0.00 | 0.00 | 76 | 1019.9 |
| 20260902142705 | 69 | 209 | 1.7 | 7.0 | 0.00 | 0.00 | 0.00 | 77 | 1019.9 |
| 20260902142627 | 69 | 147 | 1.7 | 7.0 | 0.00 | 0.00 | 0.00 | 77 | 1019.9 |
| 20260902142429 | 69 | 174 | 2.6 | 7.0 | 0.00 | 0.00 | 0.00 | 76 | 1019.9 |
| 20260902142331 | 69 | 225 | 2.6 | 7.0 | 0.00 | 0.00 | 0.00 | 76 | 1019.9 |
| 20260902142234 | 69 | 168 | 2.6 | 7.0 | 0.00 | 0.00 | 0.00 | 77 | 1019.9 |
| 20260902142157 | 69 | 191 | 3.5 | 7.0 | 0.00 | 0.00 | 0.00 | 76 | 1019.9 |
| 20260902142026 | 69 | 154 | 3.5 | 7.0 | 0.00 | 0.00 | 0.00 | 76 | 1019.9 |
| 20260902141923 | 69 | 161 | 2.6 | 7.8 | 0.00 | 0.00 | 0.00 | 77 | 1019.9 |
| 20260902141753 | 69 | 213 | 2.6 | 7.0 | 0.00 | 0.00 | 0.00 | 76 | 1020.0 |
| 20260902141714 | 69 | 159 | 2.6 | 7.0 | 0.00 | 0.00 | 0.00 | 76 | 1019.9 |
| 20260902141558 | 69 | 149 | 2.6 | 7.0 | 0.00 | 0.00 | 0.00 | 76 | 1020.0 |
| 20260902141458 | 69 | 119 | 2.6 | 7.0 | 0.00 | 0.00 | 0.00 | 77 | 1019.9 |
| 20260902141327 | 69 | 163 | 3.5 | 10.4 | 0.00 | 0.00 | 0.00 | 76 | 1019.9 |
| 20260902141222 | 69 | 163 | 4.3 | 10.4 | 0.00 | 0.00 | 0.00 | 77 | 1019.9 |
| 20260902141052 | 69 | 192 | 3.5 | 10.4 | 0.00 | 0.00 | 0.00 | 77 | 1019.8 |
| 20260902141015 | 69 | 184 | 2.6 | 10.4 | 0.00 | 0.00 | 0.00 | 78 | 1019.8 |
| 20260902140844 | 69 | 157 | 1.7 | 10.4 | 0.00 | 0.00 | 0.00 | 77 | 1019.8 |
| 20260902140738 | 69 | 159 | 2.6 | 10.4 | 0.00 | 0.00 | 0.00 | 77 | 1019.8 |
| 20260902140625 | 69 | 174 | 5.2 | 10.4 | 0.00 | 0.00 | 0.00 | 76 | 1019.8 |
| 20260902140546 | 69 | 134 | 5.2 | 10.4 | 0.00 | 0.00 | 0.00 | 76 | 1019.8 |
| 20260902140509 | 69 | 152 | 4.3 | 7.0 | 0.00 | 0.00 | 0.00 | 76 | 1019.7 |
| 20260902140413 | 69 | 207 | 2.6 | 5.2 | 0.00 | 0.00 | 0.00 | 77 | 1019.8 |
| 20260902140335 | 69 | 205 | 2.6 | 5.2 | 0.00 | 0.00 | 0.00 | 77 | 1019.8 |
| 20260902140204 | 69 | 171 | 3.5 | 6.1 | 0.00 | 0.00 | 0.00 | 76 | 1019.6 |
| 20260902140118 | 69 | 200 | 2.6 | 6.1 | 0.00 | 0.00 | 0.00 | 76 | 1019.6 |
| 20260902135929 | 69 | 193 | 1.7 | 6.1 | 0.00 | 0.00 | 0.00 | 77 | 1019.5 |
| 20260902135844 | 69 | 196 | 0.9 | 6.1 | 0.00 | 0.00 | 0.00 | 77 | 1019.4 |
| 20260902135634 | 69 | 225 | 1.7 | 6.1 | 0.00 | 0.00 | 0.00 | 77 | 1019.4 |
| 20260902135534 | 69 | 208 | 2.6 | 7.0 | 0.00 | 0.00 | 0.00 | 77 | 1019.4 |
| 20260902135429 | 69 | 188 | 2.6 | 7.0 | 0.00 | 0.00 | 0.00 | 77 | 1019.3 |
| 20260902135350 | 69 | 163 | 2.6 | 7.0 | 0.00 | 0.00 | 0.00 | 78 | 1019.3 |
| 20260902135142 | 69 | 188 | 1.7 | 7.0 | 0.00 | 0.00 | 0.00 | 77 | 1019.4 |
| 20260902135055 | 69 | 188 | 2.6 | 7.0 | 0.00 | 0.00 | 0.00 | 77 | 1019.4 |
| 20260902134833 | 69 | 190 | 3.5 | 7.0 | 0.00 | 0.00 | 0.00 | 77 | 1019.4 |
| 20260902134733 | 69 | 161 | 4.3 | 7.0 | 0.00 | 0.00 | 0.00 | 76 | 1019.4 |
| 20260902134536 | 69 | 153 | 3.5 | 7.0 | 0.00 | 0.00 | 0.00 | 77 | 1019.4 |
| 20260902134457 | 69 | 146 | 3.5 | 5.2 | 0.00 | 0.00 | 0.00 | 76 | 1019.4 |
| 20260902134326 | 69 | 179 | 3.5 | 5.2 | 0.00 | 0.00 | 0.00 | 76 | 1019.4 |
| 20260902134240 | 69 | 193 | 2.6 | 5.2 | 0.00 | 0.00 | 0.00 | 77 | 1019.4 |
| 20260902134110 | 69 | 163 | 1.7 | 4.3 | 0.00 | 0.00 | 0.00 | 76 | 1019.5 |
| 20260902134031 | 69 | 184 | 1.7 | 4.3 | 0.00 | 0.00 | 0.00 | 76 | 1019.5 |
| 20260902133835 | 69 | 196 | 2.6 | 6.1 | 0.00 | 0.00 | 0.00 | 77 | 1019.5 |
| 20260902133755 | 69 | 170 | 2.6 | 6.1 | 0.00 | 0.00 | 0.00 | 77 | 1019.5 |
| 20260902133658 | 69 | 168 | 1.7 | 6.1 | 0.00 | 0.00 | 0.00 | 77 | 1019.5 |
| 20260902133540 | 69 | 113 | 2.6 | 6.1 | 0.00 | 0.00 | 0.00 | 77 | 1019.5 |
| 20260902133442 | 69 | 168 | 2.6 | 6.1 | 0.00 | 0.00 | 0.00 | 76 | 1019.5 |
| 20260902133347 | 69 | 157 | 2.6 | 6.1 | 0.00 | 0.00 | 0.00 | 76 | 1019.5 |
| 20260902133229 | 69 | 157 | 2.6 | 6.1 | 0.00 | 0.00 | 0.00 | 77 | 1019.6 |
| 20260902133149 | 69 | 193 | 2.6 | 6.1 | 0.00 | 0.00 | 0.00 | 76 | 1019.5 |
| 20260902133109 | 69 | 151 | 3.5 | 6.1 | 0.00 | 0.00 | 0.00 | 76 | 1019.6 |
| 20260902133014 | 69 | 122 | 2.6 | 6.1 | 0.00 | 0.00 | 0.00 | 76 | 1019.5 |
| 20260902132914 | 69 | 164 | 2.6 | 6.1 | 0.00 | 0.00 | 0.00 | 76 | 1019.5 |
| 20260902132729 | 69 | 126 | 3.5 | 5.2 | 0.00 | 0.00 | 0.00 | 77 | 1019.4 |
| 20260902132630 | 69 | 172 | 2.6 | 5.2 | 0.00 | 0.00 | 0.00 | 76 | 1019.3 |
| 20260902132523 | 69 | 140 | 3.5 | 6.1 | 0.00 | 0.00 | 0.00 | 76 | 1019.4 |
| 20260902132429 | 69 | 186 | 3.5 | 6.1 | 0.00 | 0.00 | 0.00 | 76 | 1019.3 |
| 20260902132325 | 69 | 165 | 4.3 | 7.0 | 0.00 | 0.00 | 0.00 | 76 | 1019.3 |
| 20260902132246 | 69 | 161 | 3.5 | 7.0 | 0.00 | 0.00 | 0.00 | 76 | 1019.3 |
| 20260902132141 | 69 | 146 | 3.5 | 7.0 | 0.00 | 0.00 | 0.00 | 76 | 1019.3 |
| 20260902132025 | 69 | 136 | 3.5 | 7.0 | 0.00 | 0.00 | 0.00 | 76 | 1019.3 |
| 20260902131947 | 69 | 155 | 2.6 | 7.0 | 0.00 | 0.00 | 0.00 | 76 | 1019.3 |
| 20260902131755 | 69 | 199 | 3.5 | 7.0 | 0.00 | 0.00 | 0.00 | 76 | 1019.3 |
| 20260902131722 | 69 | 195 | 4.3 | 7.0 | 0.00 | 0.00 | 0.00 | 76 | 1019.3 |
| 20260902131532 | 69 | 187 | 4.3 | 7.0 | 0.00 | 0.00 | 0.00 | 75 | 1019.3 |
| 20260902131440 | 70 | 159 | 5.2 | 7.0 | 0.00 | 0.00 | 0.00 | 75 | 1019.2 |
| 20260902131323 | 70 | 178 | 4.3 | 7.8 | 0.00 | 0.00 | 0.00 | 75 | 1019.2 |
| 20260902131244 | 70 | 186 | 4.3 | 7.8 | 0.00 | 0.00 | 0.00 | 76 | 1019.2 |
| 20260902131114 | 70 | 200 | 4.3 | 7.8 | 0.00 | 0.00 | 0.00 | 75 | 1019.0 |
| 20260902131027 | 70 | 163 | 4.3 | 5.2 | 0.00 | 0.00 | 0.00 | 75 | 1019.0 |
| 20260902130857 | 70 | 170 | 2.6 | 7.0 | 0.00 | 0.00 | 0.00 | 76 | 1019.0 |
| 20260902130820 | 70 | 136 | 2.6 | 7.0 | 0.00 | 0.00 | 0.00 | 77 | 1019.0 |
| 20260902130623 | 69 | 146 | 1.7 | 7.0 | 0.00 | 0.00 | 0.00 | 78 | 1019.0 |
| 20260902130525 | 69 | 167 | 2.6 | 7.0 | 0.00 | 0.00 | 0.00 | 77 | 1019.0 |
| 20260902130433 | 69 | 186 | 3.5 | 7.0 | 0.00 | 0.00 | 0.00 | 75 | 1019.0 |
| 20260902130333 | 69 | 144 | 3.5 | 7.0 | 0.00 | 0.00 | 0.00 | 76 | 1019.0 |
| 20260902130136 | 69 | 202 | 4.3 | 7.0 | 0.00 | 0.00 | 0.00 | 76 | 1019.0 |
| 20260902130037 | 69 | 142 | 5.2 | 8.7 | 0.00 | 0.00 | 0.00 | 76 | 1019.1 |
| 20260902125941 | 69 | 200 | 4.3 | 7.0 | 0.00 | 0.00 | 0.00 | 76 | 1019.1 |
| 20260902125902 | 69 | 113 | 3.5 | 6.1 | 0.00 | 0.00 | 0.00 | 76 | 1019.1 |
| 20260902125710 | 69 | 134 | 3.5 | 6.1 | 0.00 | 0.00 | 0.00 | 76 | 1019.1 |
| 20260902125627 | 69 | 171 | 3.5 | 6.1 | 0.00 | 0.00 | 0.00 | 76 | 1019.1 |
| 20260902125456 | 69 | 128 | 2.6 | 6.1 | 0.00 | 0.00 | 0.00 | 76 | 1019.2 |
| 20260902125417 | 69 | 169 | 3.5 | 6.1 | 0.00 | 0.00 | 0.00 | 76 | 1019.2 |
| 20260902125242 | 69 | 180 | 4.3 | 6.1 | 0.00 | 0.00 | 0.00 | 76 | 1019.2 |
| 20260902125203 | 69 | 190 | 4.3 | 6.1 | 0.00 | 0.00 | 0.00 | 76 | 1019.2 |
| 20260902125013 | 69 | 149 | 3.5 | 6.1 | 0.00 | 0.00 | 0.00 | 75 | 1019.2 |
| 20260902124927 | 69 | 159 | 3.5 | 7.0 | 0.00 | 0.00 | 0.00 | 76 | 1019.2 |
| 20260902124759 | 69 | 173 | 3.5 | 7.0 | 0.00 | 0.00 | 0.00 | 76 | 1019.1 |
| 20260902124720 | 69 | 198 | 2.6 | 7.0 | 0.00 | 0.00 | 0.00 | 77 | 1019.1 |
| 20260902124523 | 69 | 213 | 1.7 | 7.0 | 0.00 | 0.00 | 0.00 | 76 | 1019.2 |
| 20260902124446 | 69 | 165 | 2.6 | 7.0 | 0.00 | 0.00 | 0.00 | 76 | 1019.2 |
| 20260902124349 | 69 | 154 | 2.6 | 7.0 | 0.00 | 0.00 | 0.00 | 76 | 1019.2 |
| 20260902124250 | 69 | 172 | 4.3 | 7.0 | 0.00 | 0.00 | 0.00 | 76 | 1019.2 |
| 20260902124031 | 69 | 167 | 3.5 | 7.0 | 0.00 | 0.00 | 0.00 | 76 | 1019.2 |
| 20260902123938 | 69 | 194 | 2.6 | 7.0 | 0.00 | 0.00 | 0.00 | 77 | 1019.2 |
| 20260902123823 | 69 | 214 | 2.6 | 7.0 | 0.00 | 0.00 | 0.00 | 77 | 1019.2 |
| 20260902123744 | 69 | 205 | 2.6 | 7.0 | 0.00 | 0.00 | 0.00 | 77 | 1019.2 |
| 20260902123614 | 69 | 168 | 1.7 | 7.0 | 0.00 | 0.00 | 0.00 | 79 | 1019.2 |
| 20260902123529 | 69 | 255 | 2.6 | 7.0 | 0.00 | 0.00 | 0.00 | 78 | 1019.2 |
| 20260902123340 | 69 | 168 | 4.3 | 7.0 | 0.00 | 0.00 | 0.00 | 77 | 1019.1 |
| 20260902123254 | 68 | 169 | 4.3 | 7.0 | 0.00 | 0.00 | 0.00 | 77 | 1019.2 |
| 20260902123043 | 68 | 209 | 3.5 | 7.0 | 0.00 | 0.00 | 0.00 | 77 | 1019.1 |
| 20260902122941 | 68 | 149 | 3.5 | 7.0 | 0.00 | 0.00 | 0.00 | 78 | 1019.0 |
| 20260902122824 | 68 | 168 | 3.5 | 7.0 | 0.00 | 0.00 | 0.00 | 77 | 1019.1 |
| 20260902122744 | 68 | 175 | 4.3 | 7.0 | 0.00 | 0.00 | 0.00 | 78 | 1019.0 |
| 20260902122615 | 68 | 196 | 3.5 | 7.0 | 0.00 | 0.00 | 0.00 | 77 | 1019.1 |
| 20260902122527 | 68 | 173 | 3.5 | 7.0 | 0.00 | 0.00 | 0.00 | 78 | 1019.1 |
| 20260902122357 | 68 | 147 | 3.5 | 7.0 | 0.00 | 0.00 | 0.00 | 78 | 1019.1 |
| 20260902122320 | 68 | 173 | 1.7 | 7.8 | 0.00 | 0.00 | 0.00 | 80 | 1019.1 |
| 20260902122123 | 68 | 140 | 0.9 | 2.6 | 0.00 | 0.00 | 0.00 | 80 | 1019.1 |
| 20260902122026 | 68 | 163 | 0.9 | 2.6 | 0.00 | 0.00 | 0.00 | 82 | 1019.1 |
| 20260902121904 | 68 | 162 | 0.9 | 2.6 | 0.00 | 0.00 | 0.00 | 81 | 1019.2 |
| 20260902121830 | 68 | 162 | 0.9 | 2.6 | 0.00 | 0.00 | 0.00 | 81 | 1019.2 |
| 20260902121632 | 67 | 162 | 0.9 | 3.5 | 0.00 | 0.00 | 0.00 | 80 | 1019.2 |
| 20260902121533 | 67 | 155 | 0.0 | 2.6 | 0.00 | 0.00 | 0.00 | 80 | 1019.2 |
| 20260902121437 | 67 | 151 | 0.0 | 2.6 | 0.00 | 0.00 | 0.00 | 81 | 1019.2 |
| 20260902121357 | 67 | 151 | 0.0 | 2.6 | 0.00 | 0.00 | 0.00 | 81 | 1019.2 |
| 20260902121319 | 67 | 151 | 0.9 | 2.6 | 0.00 | 0.00 | 0.00 | 80 | 1019.2 |
| 20260902121142 | 67 | 151 | 0.0 | 2.6 | 0.00 | 0.00 | 0.00 | 81 | 1019.2 |
| 20260902121103 | 67 | 151 | 0.0 | 2.6 | 0.00 | 0.00 | 0.00 | 81 | 1019.2 |
| 20260902121029 | 67 | 151 | 0.9 | 2.6 | 0.00 | 0.00 | 0.00 | 81 | 1019.2 |
| 20260902120908 | 67 | 151 | 0.9 | 2.6 | 0.00 | 0.00 | 0.00 | 81 | 1019.3 |
| 20260902120834 | 67 | 152 | 0.9 | 2.6 | 0.00 | 0.00 | 0.00 | 81 | 1019.3 |
| 20260902120636 | 67 | 152 | 0.9 | 1.7 | 0.00 | 0.00 | 0.00 | 80 | 1019.4 |
| 20260902120540 | 67 | 152 | 0.9 | 1.7 | 0.00 | 0.00 | 0.00 | 81 | 1019.4 |
| 20260902120439 | 67 | 152 | 0.9 | 2.6 | 0.00 | 0.00 | 0.00 | 82 | 1019.4 |
| 20260902120340 | 67 | 152 | 0.9 | 2.6 | 0.00 | 0.00 | 0.00 | 82 | 1019.4 |
| 20260902120209 | 67 | 152 | 0.9 | 2.6 | 0.00 | 0.00 | 0.00 | 81 | 1019.5 |